IBE452 SLVR-KSFO

Flight info

Callsign IBE452
Flight time 9h 43m
Altitude 32000
Route PAKES DCT TINPO DCT TEMOR DCT OSUBU/N0497F330 UT234 OAS/N0496F340 DCT ESV UL318 IPSUM/N0487F360 UL318 IZT UJ47 PBC UJ33 SLM DCT ZCL UT10 PPE/N0475F380 UJ7 MXL DCT CZQ
Aircraft B77W/H-SDE1E2E3FGHIJ2J3J4J5M1RWXY/LB1D1

Departure

Time 2026-04-11 03:25
Airport Viru Viru International Airport (SLVR)

Arrival

Time 2026-04-11 13:08
Airport San Francisco International Airport (KSFO)
Time Latitude Longitude Altitude Speed Heading
2026-04-11 02:48 -17.64802 -63.13930 1252 ft 0 kts 239°
2026-04-11 03:10 -17.64792 -63.13914 1254 ft 4 kts 239°
2026-04-11 03:10 -17.64779 -63.13890 1252 ft 4 kts 245°
2026-04-11 03:10 -17.64774 -63.13873 1252 ft 2 kts 280°
2026-04-11 03:11 -17.64778 -63.13862 1252 ft 2 kts 317°
2026-04-11 03:11 -17.64787 -63.13854 1252 ft 2 kts 326°
2026-04-11 03:11 -17.64794 -63.13850 1252 ft 0 kts 328°
2026-04-11 03:15 -17.64787 -63.13854 1252 ft 2 kts 327°
2026-04-11 03:15 -17.64736 -63.13890 1252 ft 15 kts 326°
2026-04-11 03:15 -17.64652 -63.13949 1252 ft 13 kts 328°
2026-04-11 03:15 -17.64532 -63.14016 1246 ft 10 kts 359°
2026-04-11 03:16 -17.64458 -63.13951 1249 ft 17 kts 56°
2026-04-11 03:16 -17.64389 -63.13868 1251 ft 10 kts 22°
2026-04-11 03:16 -17.64295 -63.13893 1250 ft 22 kts 329°
2026-04-11 03:16 -17.64120 -63.14010 1248 ft 38 kts 327°
2026-04-11 03:17 -17.63983 -63.14077 1244 ft 6 kts 11°
2026-04-11 03:17 -17.63931 -63.14031 1243 ft 0 kts 56°
2026-04-11 03:20 -17.63931 -63.14030 1243 ft 0 kts 56°
2026-04-11 03:20 -17.63905 -63.13994 1233 ft 13 kts 46°
2026-04-11 03:21 -17.63800 -63.13986 1233 ft 19 kts 325°
2026-04-11 03:21 -17.63665 -63.14083 1245 ft 28 kts 326°
2026-04-11 03:21 -17.63478 -63.14205 1249 ft 36 kts 327°
2026-04-11 03:21 -17.63274 -63.14344 1251 ft 26 kts 328°
2026-04-11 03:22 -17.63216 -63.14426 1241 ft 12 kts 292°
2026-04-11 03:22 -17.63184 -63.14435 1234 ft 4 kts 40°
2026-04-11 03:22 -17.63198 -63.14400 1234 ft 8 kts 136°
2026-04-11 03:22 -17.63234 -63.14372 1234 ft 0 kts 146°
2026-04-11 03:24 -17.63243 -63.14365 1238 ft 9 kts 146°
2026-04-11 03:24 -17.63451 -63.14225 1244 ft 74 kts 147°
2026-04-11 03:24 -17.64115 -63.13778 1233 ft 152 kts 147°
2026-04-11 03:25 -17.65211 -63.13041 1267 ft 216 kts 147°
2026-04-11 03:25 -17.66555 -63.12127 1869 ft 234 kts 148°
2026-04-11 03:25 -17.67844 -63.11156 3201 ft 229 kts 140°
2026-04-11 03:25 -17.68804 -63.09844 3611 ft 242 kts 107°
2026-04-11 03:26 -17.68799 -63.08082 3925 ft 250 kts 68°
2026-04-11 03:26 -17.67713 -63.06676 4367 ft 255 kts 30°
2026-04-11 03:26 -17.66015 -63.06226 4904 ft 256 kts 358°
2026-04-11 03:26 -17.64263 -63.06691 5464 ft 259 kts 332°
2026-04-11 03:27 -17.62893 -63.07893 5897 ft 267 kts 305°
2026-04-11 03:27 -17.61933 -63.09595 6237 ft 274 kts 301°
2026-04-11 03:27 -17.60966 -63.11330 6783 ft 276 kts 302°
2026-04-11 03:27 -17.60131 -63.12802 7353 ft 274 kts 302°
2026-04-11 03:28 -17.59665 -63.13622 7670 ft 273 kts 302°
2026-04-11 03:28 -17.58689 -63.15341 8300 ft 274 kts 302°
2026-04-11 03:28 -17.57713 -63.17060 8890 ft 275 kts 302°
2026-04-11 03:28 -17.56731 -63.18787 9490 ft 276 kts 302°
2026-04-11 03:29 -17.55756 -63.20500 10057 ft 277 kts 302°
2026-04-11 03:29 -17.54754 -63.22256 10412 ft 288 kts 302°
2026-04-11 03:29 -17.53689 -63.24121 10534 ft 306 kts 302°
2026-04-11 03:29 -17.52561 -63.26094 10672 ft 325 kts 302°
2026-04-11 03:30 -17.51365 -63.28185 10805 ft 343 kts 302°
2026-04-11 03:30 -17.50104 -63.30390 10932 ft 361 kts 302°
2026-04-11 03:30 -17.48785 -63.32696 11171 ft 375 kts 302°
2026-04-11 03:30 -17.47429 -63.35065 11522 ft 384 kts 302°
2026-04-11 03:31 -17.46047 -63.37481 11997 ft 389 kts 302°
2026-04-11 03:31 -17.44661 -63.39900 12520 ft 393 kts 301°
2026-04-11 03:31 -17.43249 -63.42364 13022 ft 397 kts 301°
2026-04-11 03:31 -17.41818 -63.44860 13516 ft 401 kts 301°
2026-04-11 03:32 -17.40373 -63.47380 13970 ft 406 kts 301°
2026-04-11 03:32 -17.38911 -63.49929 14401 ft 409 kts 301°
2026-04-11 03:32 -17.37438 -63.52495 14858 ft 412 kts 301°
2026-04-11 03:32 -17.35939 -63.55056 15289 ft 411 kts 304°
2026-04-11 03:33 -17.34042 -63.57323 15475 ft 420 kts 320°
2026-04-11 03:33 -17.31563 -63.58953 15880 ft 424 kts 335°
2026-04-11 03:33 -17.28787 -63.59998 16298 ft 423 kts 342°
2026-04-11 03:33 -17.25982 -63.60897 16556 ft 430 kts 341°
2026-04-11 03:34 -17.23121 -63.61847 16974 ft 433 kts 341°
2026-04-11 03:34 -17.20242 -63.62816 17453 ft 435 kts 341°
2026-04-11 03:34 -17.17362 -63.63793 17885 ft 437 kts 341°
2026-04-11 03:34 -17.14445 -63.64786 18284 ft 441 kts 341°
2026-04-11 03:35 -17.11524 -63.65783 18640 ft 444 kts 341°
2026-04-11 03:35 -17.08573 -63.66792 19032 ft 446 kts 341°
2026-04-11 03:35 -17.05620 -63.67801 19431 ft 448 kts 341°
2026-04-11 03:35 -17.02653 -63.68815 19812 ft 450 kts 341°
2026-04-11 03:36 -16.99669 -63.69834 20187 ft 452 kts 341°
2026-04-11 03:36 -16.96659 -63.70862 20563 ft 454 kts 341°
2026-04-11 03:36 -16.93645 -63.71891 20916 ft 456 kts 341°
2026-04-11 03:36 -16.90619 -63.72923 21266 ft 459 kts 341°
2026-04-11 03:37 -16.87581 -63.73959 21624 ft 461 kts 341°
2026-04-11 03:37 -16.84519 -63.75003 21975 ft 463 kts 341°
2026-04-11 03:37 -16.81450 -63.76049 22303 ft 466 kts 341°
2026-04-11 03:37 -16.78364 -63.77101 22628 ft 468 kts 341°
2026-04-11 03:38 -16.75266 -63.78156 22959 ft 470 kts 341°
2026-04-11 03:38 -16.72146 -63.79218 23269 ft 473 kts 341°
2026-04-11 03:38 -16.69002 -63.80288 23581 ft 475 kts 341°
2026-04-11 03:38 -16.65839 -63.81365 23842 ft 477 kts 341°
2026-04-11 03:39 -16.62713 -63.82428 24122 ft 478 kts 341°
2026-04-11 03:39 -16.59544 -63.83506 24397 ft 480 kts 341°
2026-04-11 03:39 -16.56362 -63.84588 24676 ft 481 kts 341°
2026-04-11 03:39 -16.53178 -63.85676 24936 ft 482 kts 340°
2026-04-11 03:40 -16.50073 -63.87025 25176 ft 483 kts 332°
2026-04-11 03:40 -16.47193 -63.88844 25426 ft 484 kts 324°
2026-04-11 03:40 -16.44544 -63.91007 25684 ft 485 kts 317°
2026-04-11 03:40 -16.42136 -63.93466 25902 ft 485 kts 315°
2026-04-11 03:41 -16.39729 -63.95948 26122 ft 487 kts 315°
2026-04-11 03:41 -16.37291 -63.98417 26360 ft 489 kts 316°
2026-04-11 03:41 -16.34840 -64.00877 26600 ft 490 kts 316°
2026-04-11 03:41 -16.32404 -64.03308 26829 ft 491 kts 316°
2026-04-11 03:42 -16.29934 -64.05768 27050 ft 492 kts 316°
2026-04-11 03:42 -16.27448 -64.08243 27254 ft 493 kts 316°
2026-04-11 03:42 -16.24963 -64.10717 27445 ft 495 kts 316°
2026-04-11 03:42 -16.22472 -64.13196 27653 ft 496 kts 316°
2026-04-11 03:43 -16.19974 -64.15684 27820 ft 497 kts 316°
2026-04-11 03:43 -16.17435 -64.18212 28018 ft 498 kts 316°
2026-04-11 03:43 -16.14927 -64.20708 28179 ft 499 kts 316°
2026-04-11 03:43 -16.12414 -64.23209 28338 ft 500 kts 316°
2026-04-11 03:44 -16.09895 -64.25715 28447 ft 503 kts 316°
2026-04-11 03:44 -16.08203 -64.27397 28451 ft 505 kts 316°
2026-04-11 03:44 -16.02263 -64.33301 28498 ft 512 kts 316°
2026-04-11 03:45 -15.97086 -64.38442 28546 ft 516 kts 316°
2026-04-11 03:45 -15.92741 -64.42754 28609 ft 519 kts 316°
2026-04-11 03:46 -15.90128 -64.45346 28720 ft 519 kts 316°
2026-04-11 03:46 -15.87518 -64.47932 28850 ft 518 kts 316°
2026-04-11 03:46 -15.84915 -64.50512 28996 ft 517 kts 316°
2026-04-11 03:46 -15.82310 -64.53094 29124 ft 516 kts 316°
2026-04-11 03:47 -15.79709 -64.55669 29243 ft 516 kts 316°
2026-04-11 03:47 -15.77100 -64.58252 29351 ft 516 kts 316°
2026-04-11 03:47 -15.74539 -64.60786 29478 ft 515 kts 316°
2026-04-11 03:47 -15.71945 -64.63352 29605 ft 515 kts 316°
2026-04-11 03:48 -15.69348 -64.65921 29756 ft 514 kts 316°
2026-04-11 03:48 -15.66761 -64.68478 29881 ft 514 kts 316°
2026-04-11 03:48 -15.64163 -64.71045 30006 ft 514 kts 316°
2026-04-11 03:48 -15.61573 -64.73603 30112 ft 513 kts 316°
2026-04-11 03:49 -15.58980 -64.76164 30226 ft 513 kts 316°
2026-04-11 03:49 -15.56417 -64.78694 30344 ft 512 kts 316°
2026-04-11 03:49 -15.53807 -64.81269 30463 ft 512 kts 316°
2026-04-11 03:49 -15.51254 -64.83787 30573 ft 512 kts 316°
2026-04-11 03:50 -15.46089 -64.88879 30780 ft 511 kts 316°
2026-04-11 03:50 -15.43513 -64.91417 30899 ft 511 kts 316°
2026-04-11 03:50 -15.40938 -64.93953 31006 ft 510 kts 316°
2026-04-11 03:51 -15.38354 -64.96498 31136 ft 510 kts 316°
2026-04-11 03:51 -15.35786 -64.99025 31251 ft 509 kts 316°
2026-04-11 03:51 -15.30667 -65.04061 31461 ft 509 kts 316°
2026-04-11 03:52 -15.28097 -65.06587 31565 ft 508 kts 316°
2026-04-11 03:52 -15.25528 -65.09112 31675 ft 508 kts 316°
2026-04-11 03:52 -15.22991 -65.11604 31795 ft 508 kts 316°
2026-04-11 03:52 -15.20432 -65.14117 31890 ft 507 kts 316°
2026-04-11 03:53 -15.15254 -65.19200 31984 ft 508 kts 316°
2026-04-11 03:53 -15.10118 -65.24238 32000 ft 508 kts 316°
2026-04-11 03:54 -15.05009 -65.29247 32009 ft 508 kts 316°
2026-04-11 03:54 -14.99868 -65.34283 32005 ft 508 kts 316°
2026-04-11 03:55 -14.94721 -65.39320 31985 ft 509 kts 316°
2026-04-11 03:55 -14.89573 -65.44356 32003 ft 509 kts 316°
2026-04-11 03:56 -14.84448 -65.49366 32002 ft 509 kts 316°
2026-04-11 03:56 -14.79294 -65.54400 31990 ft 509 kts 316°
2026-04-11 03:57 -14.74141 -65.59431 32002 ft 510 kts 316°
2026-04-11 03:57 -14.68971 -65.64474 32000 ft 510 kts 316°
2026-04-11 03:58 -14.63828 -65.69487 32001 ft 510 kts 316°
2026-04-11 03:58 -14.58653 -65.74528 31999 ft 511 kts 316°
2026-04-11 03:59 -14.53470 -65.79574 32000 ft 511 kts 316°
2026-04-11 03:59 -14.48293 -65.84611 32000 ft 511 kts 316°
2026-04-11 04:00 -14.43111 -65.89649 31984 ft 511 kts 316°
2026-04-11 04:00 -14.37935 -65.94678 31997 ft 511 kts 316°
2026-04-11 04:01 -14.32787 -65.99676 31997 ft 511 kts 316°
2026-04-11 04:01 -14.27601 -66.04708 32000 ft 511 kts 316°
2026-04-11 04:02 -14.22424 -66.09728 31998 ft 511 kts 316°
2026-04-11 04:02 -14.17242 -66.14749 31984 ft 510 kts 317°
2026-04-11 04:03 -14.12067 -66.19759 31996 ft 510 kts 317°
2026-04-11 04:03 -14.06894 -66.24766 31999 ft 509 kts 317°
2026-04-11 04:04 -14.01725 -66.29764 31998 ft 509 kts 317°
2026-04-11 04:04 -13.96593 -66.34724 31980 ft 509 kts 317°
2026-04-11 04:05 -13.91431 -66.39710 31999 ft 508 kts 317°
2026-04-11 04:05 -13.86265 -66.44696 31997 ft 508 kts 317°
2026-04-11 04:06 -13.81105 -66.49673 31981 ft 508 kts 317°
2026-04-11 04:06 -13.75968 -66.54625 31995 ft 508 kts 317°
2026-04-11 04:07 -13.70798 -66.59606 31999 ft 509 kts 317°
2026-04-11 04:07 -13.65625 -66.64586 31981 ft 510 kts 317°
2026-04-11 04:08 -13.60441 -66.69573 31996 ft 510 kts 317°
2026-04-11 04:08 -13.55247 -66.74568 31999 ft 511 kts 317°
2026-04-11 04:09 -13.50049 -66.79562 31998 ft 512 kts 317°
2026-04-11 04:09 -13.44844 -66.84562 31980 ft 512 kts 317°
2026-04-11 04:10 -13.39670 -66.89527 31994 ft 512 kts 317°
2026-04-11 04:10 -13.34458 -66.94526 31997 ft 512 kts 317°
2026-04-11 04:11 -13.29241 -66.99527 31995 ft 512 kts 317°
2026-04-11 04:11 -13.24031 -67.04518 31983 ft 512 kts 317°
2026-04-11 04:12 -13.18819 -67.09508 31977 ft 512 kts 317°
2026-04-11 04:12 -13.13638 -67.14465 31983 ft 512 kts 317°
2026-04-11 04:13 -13.08422 -67.19452 31996 ft 512 kts 317°
2026-04-11 04:13 -13.03234 -67.24410 31993 ft 512 kts 317°
2026-04-11 04:14 -12.98021 -67.29388 31974 ft 512 kts 317°
2026-04-11 04:14 -12.92799 -67.34373 31982 ft 512 kts 317°
2026-04-11 04:15 -12.84974 -67.41836 31980 ft 512 kts 317°
2026-04-11 04:16 -12.79784 -67.46782 31978 ft 512 kts 317°
2026-04-11 04:16 -12.74553 -67.51766 31980 ft 512 kts 317°
2026-04-11 04:17 -12.69327 -67.56740 31997 ft 512 kts 317°
2026-04-11 04:17 -12.64119 -67.61695 31994 ft 512 kts 317°
2026-04-11 04:18 -12.58892 -67.66665 31986 ft 513 kts 317°
2026-04-11 04:18 -12.53663 -67.71634 31981 ft 513 kts 317°
2026-04-11 04:19 -12.48429 -67.76604 31976 ft 513 kts 317°
2026-04-11 04:19 -12.43191 -67.81576 31999 ft 513 kts 317°
2026-04-11 04:20 -12.37949 -67.86548 31994 ft 513 kts 317°
2026-04-11 04:20 -12.32704 -67.91521 31984 ft 513 kts 317°
2026-04-11 04:21 -12.27491 -67.96461 31980 ft 513 kts 318°
2026-04-11 04:21 -12.22231 -68.01442 31986 ft 514 kts 318°
2026-04-11 04:22 -12.17016 -68.06378 31998 ft 514 kts 318°
2026-04-11 04:22 -12.11767 -68.11344 31982 ft 514 kts 318°
2026-04-11 04:23 -12.06510 -68.16314 31986 ft 514 kts 318°
2026-04-11 04:23 -12.01250 -68.21283 31997 ft 514 kts 318°
2026-04-11 04:24 -11.96877 -68.25414 31979 ft 515 kts 318°
2026-04-11 04:24 -11.90756 -68.31191 31982 ft 515 kts 318°
2026-04-11 04:25 -11.86372 -68.35327 31999 ft 515 kts 318°
2026-04-11 04:25 -11.81096 -68.40303 31986 ft 515 kts 318°
2026-04-11 04:26 -11.75840 -68.45256 31986 ft 516 kts 318°
2026-04-11 04:26 -11.70551 -68.50239 31998 ft 516 kts 318°
2026-04-11 04:27 -11.65272 -68.55212 31983 ft 516 kts 317°
2026-04-11 04:27 -11.60164 -68.60365 31981 ft 517 kts 315°
2026-04-11 04:28 -11.55163 -68.65632 31981 ft 517 kts 315°
2026-04-11 04:28 -11.50134 -68.70893 31982 ft 517 kts 315°
2026-04-11 04:29 -11.45115 -68.76087 31986 ft 517 kts 315°
2026-04-11 04:29 -11.40049 -68.81303 32001 ft 518 kts 315°
2026-04-11 04:30 -11.34976 -68.86523 31983 ft 518 kts 315°
2026-04-11 04:30 -11.29910 -68.91737 31983 ft 518 kts 315°
2026-04-11 04:31 -11.24828 -68.96966 31987 ft 519 kts 315°
2026-04-11 04:31 -11.19752 -69.02187 31983 ft 519 kts 315°
2026-04-11 04:32 -11.14666 -69.07415 31993 ft 519 kts 315°
2026-04-11 04:32 -11.09579 -69.12641 31983 ft 519 kts 315°
2026-04-11 04:33 -11.04516 -69.17840 31986 ft 520 kts 315°
2026-04-11 04:33 -10.99394 -69.23096 31990 ft 520 kts 315°
2026-04-11 04:34 -10.94335 -69.28285 31986 ft 520 kts 315°
2026-04-11 04:34 -10.89236 -69.33514 31985 ft 520 kts 315°
2026-04-11 04:35 -10.84131 -69.38745 31987 ft 520 kts 315°
2026-04-11 04:35 -10.79030 -69.43968 31990 ft 520 kts 315°
2026-04-11 04:36 -10.73921 -69.49198 31991 ft 521 kts 315°
2026-04-11 04:36 -10.68814 -69.54424 31987 ft 521 kts 315°
2026-04-11 04:37 -10.63698 -69.59655 31988 ft 521 kts 315°
2026-04-11 04:37 -10.58619 -69.64846 31992 ft 520 kts 315°
2026-04-11 04:38 -10.53524 -69.70052 31990 ft 518 kts 315°
2026-04-11 04:38 -10.48450 -69.75232 31984 ft 516 kts 315°
2026-04-11 04:39 -10.43392 -69.80395 31986 ft 515 kts 315°
2026-04-11 04:39 -10.38343 -69.85545 31987 ft 514 kts 315°
2026-04-11 04:40 -10.33290 -69.90697 31986 ft 514 kts 315°
2026-04-11 04:40 -10.28240 -69.95843 31985 ft 515 kts 315°
2026-04-11 04:41 -10.23201 -70.00975 31985 ft 516 kts 315°
2026-04-11 04:41 -10.18135 -70.06133 31985 ft 516 kts 315°
2026-04-11 04:42 -10.13050 -70.11308 31983 ft 517 kts 315°
2026-04-11 04:42 -10.07966 -70.16478 31985 ft 518 kts 315°
2026-04-11 04:43 -10.02877 -70.21652 31984 ft 518 kts 315°
2026-04-11 04:43 -9.97777 -70.26835 31980 ft 518 kts 315°
2026-04-11 04:44 -9.92679 -70.32014 31981 ft 519 kts 315°
2026-04-11 04:44 -9.87577 -70.37193 31982 ft 519 kts 315°
2026-04-11 04:45 -9.82474 -70.42371 31979 ft 519 kts 316°
2026-04-11 04:45 -9.77372 -70.47546 31985 ft 519 kts 316°
2026-04-11 04:46 -9.72304 -70.52684 31983 ft 519 kts 316°
2026-04-11 04:46 -9.67199 -70.57857 31983 ft 519 kts 316°
2026-04-11 04:47 -9.62089 -70.63033 31983 ft 519 kts 316°
2026-04-11 04:47 -9.56983 -70.68203 31982 ft 519 kts 316°
2026-04-11 04:48 -9.51875 -70.73372 31982 ft 519 kts 316°
2026-04-11 04:48 -9.46790 -70.78515 31983 ft 519 kts 316°
2026-04-11 04:49 -9.41682 -70.83680 31979 ft 519 kts 316°
2026-04-11 04:49 -9.36563 -70.88854 31982 ft 519 kts 316°
2026-04-11 04:50 -9.31440 -70.94029 31980 ft 520 kts 316°
2026-04-11 04:50 -9.26316 -70.99203 31985 ft 520 kts 316°
2026-04-11 04:51 -9.21188 -71.04378 31984 ft 520 kts 316°
2026-04-11 04:51 -9.16095 -71.09517 31986 ft 520 kts 316°
2026-04-11 04:52 -9.10963 -71.14691 31984 ft 521 kts 316°
2026-04-11 04:52 -9.05824 -71.19872 31983 ft 521 kts 316°
2026-04-11 04:53 -9.00684 -71.25050 31984 ft 521 kts 316°
2026-04-11 04:53 -8.95545 -71.30226 31982 ft 522 kts 316°
2026-04-11 04:54 -8.90395 -71.35411 31983 ft 522 kts 316°
2026-04-11 04:54 -8.85247 -71.40591 31985 ft 522 kts 316°
2026-04-11 04:55 -8.80127 -71.45741 31982 ft 522 kts 316°
2026-04-11 04:55 -8.74975 -71.50921 31988 ft 522 kts 316°
2026-04-11 04:56 -8.69814 -71.56109 31992 ft 523 kts 316°
2026-04-11 04:56 -8.64639 -71.61307 31991 ft 525 kts 316°
2026-04-11 04:57 -8.59446 -71.66521 31987 ft 527 kts 316°
2026-04-11 04:57 -8.54237 -71.71750 31988 ft 528 kts 316°
2026-04-11 04:58 -8.49006 -71.76999 31988 ft 530 kts 316°
2026-04-11 04:58 -8.43808 -71.82213 31982 ft 530 kts 316°
2026-04-11 04:59 -8.38567 -71.87467 31982 ft 531 kts 316°
2026-04-11 04:59 -8.33331 -71.92715 31985 ft 531 kts 316°
2026-04-11 05:00 -8.28079 -71.97977 31980 ft 530 kts 316°
2026-04-11 05:00 -8.22843 -72.03220 31984 ft 530 kts 316°
2026-04-11 05:01 -8.17609 -72.08460 31971 ft 529 kts 316°
2026-04-11 05:01 -8.12378 -72.13693 31986 ft 528 kts 316°
2026-04-11 05:02 -8.07195 -72.18878 31976 ft 528 kts 316°
2026-04-11 05:02 -8.01983 -72.24089 31970 ft 527 kts 316°
2026-04-11 05:03 -7.96780 -72.29290 31970 ft 526 kts 316°
2026-04-11 05:03 -7.91581 -72.34483 31967 ft 526 kts 316°
2026-04-11 05:04 -7.86388 -72.39671 31972 ft 525 kts 316°
2026-04-11 05:04 -7.81196 -72.44854 31970 ft 525 kts 316°
2026-04-11 05:05 -7.73399 -72.52637 31965 ft 525 kts 316°
2026-04-11 05:05 -7.68003 -72.57588 31965 ft 524 kts 322°
2026-04-11 05:06 -7.62282 -72.62135 31970 ft 524 kts 322°
2026-04-11 05:06 -7.56583 -72.66637 31965 ft 524 kts 322°
2026-04-11 05:07 -7.50858 -72.71222 31966 ft 525 kts 322°
2026-04-11 05:07 -7.45164 -72.75819 31965 ft 525 kts 322°
2026-04-11 05:08 -7.39466 -72.80424 31965 ft 525 kts 322°
2026-04-11 05:08 -7.33759 -72.85031 31967 ft 526 kts 322°
2026-04-11 05:09 -7.28048 -72.89635 31966 ft 526 kts 322°
2026-04-11 05:09 -7.22318 -72.94254 31956 ft 526 kts 322°
2026-04-11 05:10 -7.16603 -72.98859 31961 ft 526 kts 322°
2026-04-11 05:10 -7.10885 -73.03464 31970 ft 527 kts 322°
2026-04-11 05:11 -7.05199 -73.08042 31972 ft 527 kts 322°
2026-04-11 05:11 -6.99470 -73.12654 31961 ft 527 kts 322°
2026-04-11 05:12 -6.94666 -73.16520 31960 ft 527 kts 322°
2026-04-11 05:12 -6.88975 -73.21098 31966 ft 527 kts 323°
2026-04-11 05:13 -6.83239 -73.25711 31966 ft 527 kts 323°
2026-04-11 05:13 -6.77507 -73.30319 31963 ft 527 kts 323°
2026-04-11 05:14 -6.71768 -73.34932 31961 ft 528 kts 323°
2026-04-11 05:14 -6.66020 -73.39551 31965 ft 528 kts 323°
2026-04-11 05:15 -6.60284 -73.44157 31965 ft 528 kts 323°
2026-04-11 05:15 -6.54564 -73.48751 31962 ft 528 kts 323°
2026-04-11 05:16 -6.48823 -73.53359 31962 ft 528 kts 323°
2026-04-11 05:16 -6.43087 -73.57962 31970 ft 528 kts 323°
2026-04-11 05:17 -6.37350 -73.62565 31963 ft 528 kts 323°
2026-04-11 05:17 -6.31601 -73.67175 31960 ft 528 kts 323°
2026-04-11 05:18 -6.25857 -73.71781 31960 ft 528 kts 323°
2026-04-11 05:18 -6.20107 -73.76390 31960 ft 528 kts 323°
2026-04-11 05:19 -6.14356 -73.80998 31960 ft 528 kts 323°
2026-04-11 05:19 -6.08609 -73.85602 31959 ft 529 kts 323°
2026-04-11 05:20 -6.02897 -73.90176 31960 ft 529 kts 323°
2026-04-11 05:20 -5.97142 -73.94784 31958 ft 529 kts 323°
2026-04-11 05:21 -5.91388 -73.99390 31961 ft 529 kts 323°
2026-04-11 05:21 -5.85628 -74.03999 31961 ft 529 kts 323°
2026-04-11 05:22 -5.79865 -74.08610 31959 ft 529 kts 323°
2026-04-11 05:22 -5.74108 -74.13214 31963 ft 529 kts 323°
2026-04-11 05:23 -5.68343 -74.17823 31960 ft 529 kts 323°
2026-04-11 05:23 -5.62589 -74.22423 31961 ft 529 kts 323°
2026-04-11 05:24 -5.56815 -74.27037 31960 ft 529 kts 323°
2026-04-11 05:24 -5.51062 -74.31633 31960 ft 529 kts 323°
2026-04-11 05:25 -5.45341 -74.36203 31963 ft 529 kts 323°
2026-04-11 05:25 -5.39584 -74.40799 31962 ft 528 kts 323°
2026-04-11 05:26 -5.33815 -74.45405 31965 ft 528 kts 323°
2026-04-11 05:26 -5.28061 -74.49998 31962 ft 528 kts 322°
2026-04-11 05:27 -5.22312 -74.54585 31961 ft 528 kts 322°
2026-04-11 05:27 -5.16549 -74.59182 31963 ft 528 kts 322°
2026-04-11 05:28 -5.10827 -74.63746 31963 ft 528 kts 322°
2026-04-11 05:28 -5.05074 -74.68333 31966 ft 529 kts 322°
2026-04-11 05:29 -4.99314 -74.72924 31966 ft 529 kts 322°
2026-04-11 05:29 -4.93558 -74.77513 31961 ft 529 kts 322°
2026-04-11 05:30 -4.87790 -74.82108 31961 ft 529 kts 322°
2026-04-11 05:30 -4.82032 -74.86695 31965 ft 529 kts 323°
2026-04-11 05:31 -4.76261 -74.91292 31961 ft 529 kts 323°
2026-04-11 05:31 -4.70492 -74.95885 31964 ft 530 kts 323°
2026-04-11 05:32 -4.64751 -75.00455 31965 ft 530 kts 323°
2026-04-11 05:32 -4.58974 -75.05054 31966 ft 530 kts 323°
2026-04-11 05:33 -4.53183 -75.09662 31967 ft 530 kts 323°
2026-04-11 05:33 -4.47392 -75.14269 31968 ft 531 kts 323°
2026-04-11 05:34 -4.41645 -75.18841 31963 ft 531 kts 323°
2026-04-11 05:34 -4.35863 -75.23439 31966 ft 531 kts 323°
2026-04-11 05:35 -4.30079 -75.28038 31965 ft 531 kts 323°
2026-04-11 05:35 -4.24285 -75.32644 31964 ft 530 kts 323°
2026-04-11 05:36 -4.18503 -75.37240 31966 ft 530 kts 323°
2026-04-11 05:36 -4.12724 -75.41832 31969 ft 530 kts 323°
2026-04-11 05:37 -4.06943 -75.46425 31967 ft 530 kts 323°
2026-04-11 05:37 -4.01161 -75.51018 31968 ft 530 kts 323°
2026-04-11 05:38 -3.95378 -75.55611 31966 ft 530 kts 323°
2026-04-11 05:38 -3.89642 -75.60166 31967 ft 530 kts 323°
2026-04-11 05:39 -3.83863 -75.64753 31964 ft 530 kts 323°
2026-04-11 05:39 -3.78087 -75.69338 31969 ft 530 kts 323°
2026-04-11 05:40 -3.72301 -75.73930 31966 ft 530 kts 323°
2026-04-11 05:40 -3.66528 -75.78512 31968 ft 530 kts 323°
2026-04-11 05:41 -3.60747 -75.83098 31966 ft 530 kts 323°
2026-04-11 05:41 -3.54999 -75.87658 31970 ft 530 kts 323°
2026-04-11 05:42 -3.49218 -75.92243 31971 ft 530 kts 323°
2026-04-11 05:42 -3.43438 -75.96828 31969 ft 530 kts 323°
2026-04-11 05:43 -3.37653 -76.01415 31970 ft 530 kts 323°
2026-04-11 05:43 -3.31875 -76.05995 31970 ft 530 kts 323°
2026-04-11 05:44 -3.26077 -76.10572 31971 ft 530 kts 323°
2026-04-11 05:44 -3.20274 -76.15146 31972 ft 531 kts 323°
2026-04-11 05:45 -3.14473 -76.19722 31975 ft 531 kts 323°
2026-04-11 05:45 -3.08668 -76.24303 31973 ft 531 kts 323°
2026-04-11 05:46 -3.02900 -76.28853 31973 ft 531 kts 323°
2026-04-11 05:46 -2.97103 -76.33427 31973 ft 531 kts 323°
2026-04-11 05:47 -2.91296 -76.38007 31971 ft 531 kts 323°
2026-04-11 05:47 -2.85487 -76.42588 31975 ft 531 kts 323°
2026-04-11 05:48 -2.79678 -76.47169 31972 ft 531 kts 323°
2026-04-11 05:48 -2.73941 -76.51837 31973 ft 532 kts 321°
2026-04-11 05:49 -2.68287 -76.56631 31978 ft 532 kts 321°
2026-04-11 05:49 -2.62646 -76.61418 31977 ft 532 kts 321°
2026-04-11 05:50 -2.56986 -76.66184 31974 ft 532 kts 321°
2026-04-11 05:50 -2.51317 -76.70940 31975 ft 532 kts 321°
2026-04-11 05:51 -2.45640 -76.75700 31976 ft 532 kts 321°
2026-04-11 05:51 -2.40009 -76.80423 31978 ft 532 kts 321°
2026-04-11 05:52 -2.34340 -76.85179 31977 ft 531 kts 321°
2026-04-11 05:52 -2.28674 -76.89934 31981 ft 531 kts 321°
2026-04-11 05:53 -2.23012 -76.94683 31981 ft 531 kts 321°
2026-04-11 05:53 -2.17354 -76.99427 31984 ft 531 kts 321°
2026-04-11 05:54 -2.11697 -77.04172 31986 ft 530 kts 321°
2026-04-11 05:54 -2.06034 -77.08921 31982 ft 530 kts 321°
2026-04-11 05:55 -2.00384 -77.13659 31988 ft 530 kts 321°
2026-04-11 05:55 -1.94764 -77.18370 31991 ft 530 kts 321°
2026-04-11 05:56 -1.89110 -77.23109 32003 ft 530 kts 321°
2026-04-11 05:56 -1.83464 -77.27843 32008 ft 530 kts 321°
2026-04-11 05:57 -1.77812 -77.32580 32017 ft 530 kts 321°
2026-04-11 05:57 -1.73111 -77.36520 32025 ft 530 kts 321°
2026-04-11 05:58 -1.67448 -77.41266 32036 ft 530 kts 321°
2026-04-11 05:58 -1.61799 -77.46000 32045 ft 530 kts 321°
2026-04-11 05:59 -1.56142 -77.50740 32057 ft 530 kts 321°
2026-04-11 05:59 -1.50483 -77.55482 32062 ft 531 kts 321°
2026-04-11 06:00 -1.44828 -77.60220 32072 ft 531 kts 321°
2026-04-11 06:00 -1.39168 -77.64961 32078 ft 531 kts 321°
2026-04-11 06:01 -1.33498 -77.69710 32105 ft 531 kts 321°
2026-04-11 06:01 -1.27871 -77.74424 32115 ft 532 kts 321°
2026-04-11 06:02 -1.22197 -77.79176 32125 ft 532 kts 321°
2026-04-11 06:02 -1.16524 -77.83927 32141 ft 532 kts 321°
2026-04-11 06:03 -1.10849 -77.88680 32172 ft 532 kts 321°
2026-04-11 06:03 -1.05166 -77.93440 32191 ft 532 kts 321°
2026-04-11 06:04 -0.99490 -77.98193 32217 ft 533 kts 321°
2026-04-11 06:04 -0.93817 -78.02944 32252 ft 532 kts 321°
2026-04-11 06:05 -0.88133 -78.07704 32294 ft 532 kts 321°
2026-04-11 06:05 -0.82451 -78.12460 32311 ft 533 kts 321°
2026-04-11 06:06 -0.73926 -78.19598 32348 ft 533 kts 321°
2026-04-11 06:07 -0.68238 -78.24360 32369 ft 533 kts 321°
2026-04-11 06:07 -0.62550 -78.29122 32379 ft 533 kts 321°
2026-04-11 06:08 -0.56899 -78.33853 32383 ft 534 kts 321°
2026-04-11 06:08 -0.51199 -78.38625 32387 ft 534 kts 321°
2026-04-11 06:09 -0.45508 -78.43389 32371 ft 533 kts 321°
2026-04-11 06:09 -0.39822 -78.48149 32364 ft 533 kts 320°
2026-04-11 06:10 -0.34136 -78.52909 32360 ft 532 kts 320°
2026-04-11 06:10 -0.28459 -78.57661 32346 ft 532 kts 320°
2026-04-11 06:11 -0.22828 -78.62375 32325 ft 531 kts 320°
2026-04-11 06:11 -0.17169 -78.67113 32303 ft 531 kts 320°
2026-04-11 06:12 -0.11501 -78.71856 32224 ft 531 kts 320°
2026-04-11 06:12 -0.05829 -78.76603 32206 ft 531 kts 320°
2026-04-11 06:13 -0.00160 -78.81349 32182 ft 532 kts 320°
2026-04-11 06:13 0.05488 -78.86077 32181 ft 532 kts 320°
2026-04-11 06:14 0.11172 -78.90835 32160 ft 533 kts 320°
2026-04-11 06:14 0.16869 -78.95603 32145 ft 533 kts 320°
2026-04-11 06:15 0.22560 -79.00367 32121 ft 533 kts 320°
2026-04-11 06:15 0.28218 -79.05103 32107 ft 534 kts 320°
2026-04-11 06:16 0.33909 -79.09868 32086 ft 534 kts 320°
2026-04-11 06:16 0.39610 -79.14640 32074 ft 534 kts 320°
2026-04-11 06:17 0.45305 -79.19407 32054 ft 534 kts 320°
2026-04-11 06:17 0.50938 -79.24122 32041 ft 534 kts 320°
2026-04-11 06:18 0.56679 -79.28929 32033 ft 533 kts 320°
2026-04-11 06:18 0.62359 -79.33684 32018 ft 533 kts 320°
2026-04-11 06:19 0.68038 -79.38440 32008 ft 532 kts 320°
2026-04-11 06:19 0.73719 -79.43196 32001 ft 531 kts 320°
2026-04-11 06:20 0.79345 -79.47906 31988 ft 531 kts 320°
2026-04-11 06:20 0.85006 -79.52647 31976 ft 531 kts 320°
2026-04-11 06:21 0.90664 -79.57386 31961 ft 531 kts 320°
2026-04-11 06:21 0.96323 -79.62126 31950 ft 531 kts 320°
2026-04-11 06:22 1.01913 -79.66958 31941 ft 531 kts 319°
2026-04-11 06:22 1.07395 -79.71899 31932 ft 530 kts 318°
2026-04-11 06:23 1.12874 -79.76827 31922 ft 530 kts 319°
2026-04-11 06:23 1.18381 -79.81742 31914 ft 530 kts 319°
2026-04-11 06:24 1.23884 -79.86642 31906 ft 530 kts 319°
2026-04-11 06:24 1.29391 -79.91551 31907 ft 530 kts 319°
2026-04-11 06:25 1.34905 -79.96468 31907 ft 530 kts 319°
2026-04-11 06:25 1.40378 -80.01349 31906 ft 530 kts 319°
2026-04-11 06:26 1.45835 -80.06317 31902 ft 531 kts 317°
2026-04-11 06:26 1.51203 -80.11396 31903 ft 531 kts 317°
2026-04-11 06:27 1.56570 -80.16489 31900 ft 531 kts 317°
2026-04-11 06:27 1.61942 -80.21556 31902 ft 531 kts 317°
2026-04-11 06:28 1.67291 -80.26584 31898 ft 531 kts 317°
2026-04-11 06:28 1.72674 -80.31641 31903 ft 531 kts 317°
2026-04-11 06:29 1.78058 -80.36701 31895 ft 531 kts 317°
2026-04-11 06:29 1.83443 -80.41766 31896 ft 531 kts 317°
2026-04-11 06:30 1.88827 -80.46829 31893 ft 531 kts 317°
2026-04-11 06:30 1.94207 -80.51889 31893 ft 531 kts 317°
2026-04-11 06:31 1.99578 -80.56941 31894 ft 530 kts 317°
2026-04-11 06:31 2.04955 -80.62000 31895 ft 530 kts 317°
2026-04-11 06:32 2.10335 -80.67061 31892 ft 530 kts 317°
2026-04-11 06:32 2.15706 -80.72114 31891 ft 530 kts 317°
2026-04-11 06:33 2.21081 -80.77171 31890 ft 530 kts 317°
2026-04-11 06:33 2.26429 -80.82205 31889 ft 530 kts 317°
2026-04-11 06:34 2.31799 -80.87259 31889 ft 530 kts 317°
2026-04-11 06:34 2.37178 -80.92322 31888 ft 530 kts 317°
2026-04-11 06:35 2.42511 -80.97342 31888 ft 530 kts 317°
2026-04-11 06:35 2.47885 -81.02403 31887 ft 530 kts 317°
2026-04-11 06:36 2.53251 -81.07455 31882 ft 530 kts 317°
2026-04-11 06:36 2.58613 -81.12504 31884 ft 529 kts 317°
2026-04-11 06:37 2.63980 -81.17559 31882 ft 529 kts 317°
2026-04-11 06:37 2.69342 -81.22610 31881 ft 529 kts 317°
2026-04-11 06:38 2.74700 -81.27657 31883 ft 529 kts 317°
2026-04-11 06:38 2.80030 -81.32679 31879 ft 529 kts 317°
2026-04-11 06:39 2.85381 -81.37722 31877 ft 529 kts 317°
2026-04-11 06:39 2.90741 -81.42773 31881 ft 529 kts 317°
2026-04-11 06:40 2.96095 -81.47820 31879 ft 529 kts 317°
2026-04-11 06:40 3.01458 -81.52875 31880 ft 529 kts 317°
2026-04-11 06:41 3.06776 -81.57889 31881 ft 529 kts 317°
2026-04-11 06:41 3.12135 -81.62943 31879 ft 529 kts 317°
2026-04-11 06:42 3.17496 -81.67999 31880 ft 529 kts 317°
2026-04-11 06:42 3.22852 -81.73051 31875 ft 528 kts 317°
2026-04-11 06:43 3.28166 -81.78064 31878 ft 528 kts 317°
2026-04-11 06:43 3.33520 -81.83116 31878 ft 528 kts 317°
2026-04-11 06:44 3.38878 -81.88172 31875 ft 528 kts 317°
2026-04-11 06:44 3.44238 -81.93230 31875 ft 529 kts 317°
2026-04-11 06:45 3.49555 -81.98250 31877 ft 529 kts 317°
2026-04-11 06:45 3.54911 -82.03307 31874 ft 529 kts 317°
2026-04-11 06:46 3.60262 -82.08360 31873 ft 529 kts 317°
2026-04-11 06:46 3.64703 -82.12554 31875 ft 528 kts 318°
2026-04-11 06:47 3.70045 -82.17601 31876 ft 528 kts 318°
2026-04-11 06:47 3.75392 -82.22652 31877 ft 528 kts 318°
2026-04-11 06:48 3.80733 -82.27699 31877 ft 528 kts 318°
2026-04-11 06:48 3.86074 -82.32747 31878 ft 528 kts 318°
2026-04-11 06:49 3.91412 -82.37793 31877 ft 528 kts 318°
2026-04-11 06:49 3.96754 -82.42844 31875 ft 528 kts 318°
2026-04-11 06:50 4.02067 -82.47868 31874 ft 528 kts 318°
2026-04-11 06:50 4.07411 -82.52922 31877 ft 529 kts 318°
2026-04-11 06:51 4.12767 -82.57989 31876 ft 529 kts 318°
2026-04-11 06:51 4.18130 -82.63063 31877 ft 529 kts 318°
2026-04-11 06:52 4.23490 -82.68136 31877 ft 530 kts 318°
2026-04-11 06:52 4.28849 -82.73210 31881 ft 530 kts 318°
2026-04-11 06:53 4.34203 -82.78279 31881 ft 530 kts 318°
2026-04-11 06:53 4.39527 -82.83321 31876 ft 530 kts 318°
2026-04-11 06:54 4.44883 -82.88396 31879 ft 530 kts 317°
2026-04-11 06:54 4.50248 -82.93462 31877 ft 529 kts 318°
2026-04-11 06:55 4.55677 -82.98442 31879 ft 529 kts 319°
2026-04-11 06:55 4.61123 -83.03398 31874 ft 529 kts 319°
2026-04-11 06:56 4.66557 -83.08363 31872 ft 529 kts 319°
2026-04-11 06:56 4.71982 -83.13338 31874 ft 529 kts 319°
2026-04-11 06:57 4.77408 -83.18318 31874 ft 529 kts 318°
2026-04-11 06:57 4.82800 -83.23267 31871 ft 529 kts 318°
2026-04-11 06:58 4.88238 -83.28259 31873 ft 530 kts 318°
2026-04-11 06:58 4.93679 -83.33253 31874 ft 530 kts 318°
2026-04-11 06:59 4.99114 -83.38244 31871 ft 530 kts 318°
2026-04-11 06:59 5.04553 -83.43239 31867 ft 530 kts 318°
2026-04-11 07:00 5.10002 -83.48245 31872 ft 530 kts 318°
2026-04-11 07:00 5.15411 -83.53215 31878 ft 530 kts 318°
2026-04-11 07:01 5.20859 -83.58223 31875 ft 530 kts 318°
2026-04-11 07:01 5.26298 -83.63223 31877 ft 530 kts 318°
2026-04-11 07:02 5.31735 -83.68223 31869 ft 530 kts 318°
2026-04-11 07:02 5.37167 -83.73220 31870 ft 529 kts 318°
2026-04-11 07:03 5.42592 -83.78211 31871 ft 529 kts 318°
2026-04-11 07:03 5.48017 -83.83204 31872 ft 529 kts 318°
2026-04-11 07:04 5.53404 -83.88163 31874 ft 528 kts 318°
2026-04-11 07:04 5.58855 -83.93181 31874 ft 528 kts 318°
2026-04-11 07:05 5.64268 -83.98167 31877 ft 528 kts 318°
2026-04-11 07:05 5.69646 -84.03123 31877 ft 528 kts 317°
2026-04-11 07:06 5.75061 -84.08113 31877 ft 528 kts 317°
2026-04-11 07:06 5.80477 -84.13107 31879 ft 528 kts 317°
2026-04-11 07:07 5.85829 -84.18145 31877 ft 527 kts 316°
2026-04-11 07:07 5.91062 -84.23319 31877 ft 527 kts 315°
2026-04-11 07:08 5.96240 -84.28466 31878 ft 527 kts 315°
2026-04-11 07:08 6.01464 -84.33622 31879 ft 526 kts 316°
2026-04-11 07:09 6.06694 -84.38762 31878 ft 526 kts 316°
2026-04-11 07:09 6.11923 -84.43900 31877 ft 525 kts 316°
2026-04-11 07:10 6.19754 -84.51600 31876 ft 525 kts 316°
2026-04-11 07:10 6.24970 -84.56732 31874 ft 524 kts 316°
2026-04-11 07:11 6.30179 -84.61860 31877 ft 523 kts 316°
2026-04-11 07:11 6.35379 -84.66980 31876 ft 523 kts 316°
2026-04-11 07:12 6.40540 -84.72063 31878 ft 522 kts 316°
2026-04-11 07:12 6.45727 -84.77173 31876 ft 522 kts 316°
2026-04-11 07:13 6.50909 -84.82280 31877 ft 522 kts 316°
2026-04-11 07:13 6.56100 -84.87397 31877 ft 522 kts 316°
2026-04-11 07:14 6.61278 -84.92503 31878 ft 521 kts 315°
2026-04-11 07:14 6.66457 -84.97611 31874 ft 521 kts 315°
2026-04-11 07:15 6.71631 -85.02717 31874 ft 520 kts 315°
2026-04-11 07:15 6.76800 -85.07818 31874 ft 520 kts 315°
2026-04-11 07:16 6.81925 -85.12877 31873 ft 519 kts 315°
2026-04-11 07:16 6.87077 -85.17966 31870 ft 519 kts 315°
2026-04-11 07:17 6.92229 -85.23055 31872 ft 519 kts 315°
2026-04-11 07:17 6.97373 -85.28139 31871 ft 518 kts 315°
2026-04-11 07:18 7.02516 -85.33223 31872 ft 518 kts 315°
2026-04-11 07:18 7.07664 -85.38314 31873 ft 519 kts 315°
2026-04-11 07:19 7.12812 -85.43407 31872 ft 519 kts 315°
2026-04-11 07:19 7.17969 -85.48510 31871 ft 519 kts 315°
2026-04-11 07:20 7.23117 -85.53606 31869 ft 519 kts 315°
2026-04-11 07:20 7.28278 -85.58717 31869 ft 519 kts 315°
2026-04-11 07:21 7.33391 -85.63782 31866 ft 519 kts 315°
2026-04-11 07:21 7.38544 -85.68888 31867 ft 519 kts 316°
2026-04-11 07:22 7.43687 -85.73986 31866 ft 518 kts 316°
2026-04-11 07:22 7.48818 -85.79074 31868 ft 517 kts 315°
2026-04-11 07:23 7.53942 -85.84157 31871 ft 516 kts 315°
2026-04-11 07:23 7.59057 -85.89232 31867 ft 515 kts 315°
2026-04-11 07:24 7.64123 -85.94262 31869 ft 514 kts 315°
2026-04-11 07:24 7.69215 -85.99320 31869 ft 513 kts 315°
2026-04-11 07:25 7.74294 -86.04366 31869 ft 512 kts 315°
2026-04-11 07:25 7.79364 -86.09403 31868 ft 511 kts 315°
2026-04-11 07:26 7.84433 -86.14439 31871 ft 511 kts 315°
2026-04-11 07:26 7.89499 -86.19478 31873 ft 511 kts 315°
2026-04-11 07:27 7.94524 -86.24477 31870 ft 510 kts 315°
2026-04-11 07:27 7.99580 -86.29510 31874 ft 510 kts 315°
2026-04-11 07:28 8.04628 -86.34537 31869 ft 509 kts 315°
2026-04-11 07:28 8.09669 -86.39557 31871 ft 509 kts 315°
2026-04-11 07:29 8.14713 -86.44584 31872 ft 509 kts 315°
2026-04-11 07:29 8.19754 -86.49609 31872 ft 509 kts 315°
2026-04-11 07:30 8.24791 -86.54632 31870 ft 509 kts 315°
2026-04-11 07:30 8.29824 -86.59653 31873 ft 509 kts 315°
2026-04-11 07:31 8.34831 -86.64650 31872 ft 508 kts 315°
2026-04-11 07:31 8.39867 -86.69678 31874 ft 508 kts 315°
2026-04-11 07:32 8.44897 -86.74701 31873 ft 508 kts 315°
2026-04-11 07:32 8.49926 -86.79725 31875 ft 508 kts 315°
2026-04-11 07:33 8.54952 -86.84749 31875 ft 508 kts 315°
2026-04-11 07:33 8.59951 -86.89747 31874 ft 508 kts 315°
2026-04-11 07:34 8.64976 -86.94775 31875 ft 508 kts 315°
2026-04-11 07:34 8.70004 -86.99806 31871 ft 508 kts 314°
2026-04-11 07:35 8.74174 -87.03980 31876 ft 508 kts 314°
2026-04-11 07:35 8.79203 -87.09017 31870 ft 508 kts 314°
2026-04-11 07:36 8.84224 -87.14047 31870 ft 508 kts 314°
2026-04-11 07:36 8.89253 -87.19087 31873 ft 508 kts 314°
2026-04-11 07:37 8.94275 -87.24122 31874 ft 508 kts 314°
2026-04-11 07:37 8.99295 -87.29158 31873 ft 508 kts 314°
2026-04-11 07:38 9.04276 -87.34156 31874 ft 508 kts 314°
2026-04-11 07:38 9.09293 -87.39193 31874 ft 508 kts 314°
2026-04-11 07:39 9.14301 -87.44223 31875 ft 507 kts 314°
2026-04-11 07:39 9.19311 -87.49256 31874 ft 507 kts 314°
2026-04-11 07:40 9.24322 -87.54293 31872 ft 507 kts 314°
2026-04-11 07:40 9.29328 -87.59328 31877 ft 507 kts 314°
2026-04-11 07:41 9.34332 -87.64361 31878 ft 507 kts 314°
2026-04-11 07:41 9.39305 -87.69366 31876 ft 507 kts 314°
2026-04-11 07:42 9.44303 -87.74399 31879 ft 507 kts 314°
2026-04-11 07:43 9.51804 -87.81956 31874 ft 507 kts 314°
2026-04-11 07:43 9.56805 -87.86997 31876 ft 506 kts 314°
2026-04-11 07:44 9.61801 -87.92035 31875 ft 506 kts 314°
2026-04-11 07:44 9.66799 -87.97078 31878 ft 506 kts 314°
2026-04-11 07:45 9.71788 -88.02113 31877 ft 506 kts 314°
2026-04-11 07:45 9.76781 -88.07155 31880 ft 506 kts 314°
2026-04-11 07:46 9.81775 -88.12200 31880 ft 507 kts 314°
2026-04-11 07:46 9.86739 -88.17218 31879 ft 507 kts 314°
2026-04-11 07:47 9.91735 -88.22271 31879 ft 507 kts 314°
2026-04-11 07:47 9.96733 -88.27327 31883 ft 507 kts 314°
2026-04-11 07:48 10.01736 -88.32391 31884 ft 508 kts 314°
2026-04-11 07:48 10.06742 -88.37461 31881 ft 508 kts 314°
2026-04-11 07:49 10.11717 -88.42481 31888 ft 508 kts 314°
2026-04-11 07:49 10.16737 -88.47535 31886 ft 508 kts 314°
2026-04-11 07:50 10.21749 -88.52584 31884 ft 508 kts 314°
2026-04-11 07:50 10.26765 -88.57645 31888 ft 508 kts 314°
2026-04-11 07:51 10.31778 -88.62706 31891 ft 508 kts 314°
2026-04-11 07:51 10.36784 -88.67762 31891 ft 507 kts 313°
2026-04-11 07:52 10.41784 -88.72815 31896 ft 506 kts 313°
2026-04-11 07:52 10.46780 -88.77866 31890 ft 506 kts 313°
2026-04-11 07:53 10.51734 -88.82876 31890 ft 505 kts 313°
2026-04-11 07:53 10.56714 -88.87915 31887 ft 504 kts 313°
2026-04-11 07:54 10.61683 -88.92947 31894 ft 504 kts 313°
2026-04-11 07:54 10.66656 -88.97984 31896 ft 504 kts 313°
2026-04-11 07:55 10.71618 -89.03013 31895 ft 504 kts 313°
2026-04-11 07:55 10.76578 -89.08041 31899 ft 504 kts 313°
2026-04-11 07:56 10.81507 -89.13042 31895 ft 504 kts 313°
2026-04-11 07:56 10.86469 -89.18078 31895 ft 503 kts 313°
2026-04-11 07:57 10.91431 -89.23114 31901 ft 503 kts 313°
2026-04-11 07:57 10.96389 -89.28152 31904 ft 503 kts 313°
2026-04-11 07:58 11.01345 -89.33191 31900 ft 504 kts 313°
2026-04-11 07:58 11.06313 -89.38244 31902 ft 505 kts 313°
2026-04-11 07:59 11.11253 -89.43269 31904 ft 505 kts 313°
2026-04-11 07:59 11.16230 -89.48336 31906 ft 506 kts 313°
2026-04-11 08:00 11.21208 -89.53406 31906 ft 506 kts 313°
2026-04-11 08:00 11.26192 -89.58484 31899 ft 506 kts 313°
2026-04-11 08:01 11.31172 -89.63562 31910 ft 506 kts 313°
2026-04-11 08:01 11.36144 -89.68634 31912 ft 505 kts 313°
2026-04-11 08:02 11.41112 -89.73705 31907 ft 505 kts 313°
2026-04-11 08:02 11.46049 -89.78746 31902 ft 505 kts 313°
2026-04-11 08:03 11.51009 -89.83814 31906 ft 504 kts 313°
2026-04-11 08:03 11.55966 -89.88881 31905 ft 504 kts 313°
2026-04-11 08:04 11.60918 -89.93946 31904 ft 504 kts 313°
2026-04-11 08:04 11.65866 -89.99009 31904 ft 504 kts 313°
2026-04-11 08:05 11.70813 -90.04074 31904 ft 503 kts 313°
2026-04-11 08:05 11.75752 -90.09134 31904 ft 503 kts 313°
2026-04-11 08:06 11.80696 -90.14202 31903 ft 503 kts 313°
2026-04-11 08:06 11.85610 -90.19241 31904 ft 503 kts 313°
2026-04-11 08:07 11.90552 -90.24312 31905 ft 504 kts 313°
2026-04-11 08:07 11.95500 -90.29392 31903 ft 504 kts 313°
2026-04-11 08:08 12.02913 -90.37008 31899 ft 504 kts 313°
2026-04-11 08:08 12.07819 -90.42052 31901 ft 503 kts 313°
2026-04-11 08:09 12.12765 -90.47140 31901 ft 503 kts 313°
2026-04-11 08:09 12.17697 -90.52216 31903 ft 503 kts 313°
2026-04-11 08:10 12.22630 -90.57296 31902 ft 503 kts 313°
2026-04-11 08:10 12.27562 -90.62377 31905 ft 503 kts 313°
2026-04-11 08:11 12.32495 -90.67462 31904 ft 503 kts 313°
2026-04-11 08:11 12.37426 -90.72549 31904 ft 503 kts 313°
2026-04-11 08:12 12.42356 -90.77637 31905 ft 503 kts 313°
2026-04-11 08:12 12.47261 -90.82703 31901 ft 503 kts 313°
2026-04-11 08:13 12.52186 -90.87792 31901 ft 503 kts 312°
2026-04-11 08:13 12.57115 -90.92888 31903 ft 503 kts 312°
2026-04-11 08:14 12.62039 -90.97983 31904 ft 503 kts 312°
2026-04-11 08:14 12.66973 -91.03090 31903 ft 504 kts 312°
2026-04-11 08:15 12.71897 -91.08190 31904 ft 504 kts 312°
2026-04-11 08:15 12.76829 -91.13300 31904 ft 504 kts 312°
2026-04-11 08:16 12.81756 -91.18410 31906 ft 504 kts 312°
2026-04-11 08:16 12.86656 -91.23493 31904 ft 504 kts 312°
2026-04-11 08:17 12.91592 -91.28618 31905 ft 505 kts 312°
2026-04-11 08:17 12.96527 -91.33744 31904 ft 505 kts 312°
2026-04-11 08:18 13.01458 -91.38869 31903 ft 505 kts 312°
2026-04-11 08:18 13.06393 -91.44002 31907 ft 505 kts 312°
2026-04-11 08:19 13.11327 -91.49136 31906 ft 505 kts 312°
2026-04-11 08:19 13.16254 -91.54267 31905 ft 505 kts 312°
2026-04-11 08:20 13.21156 -91.59375 31907 ft 505 kts 312°
2026-04-11 08:20 13.26084 -91.64512 31903 ft 504 kts 312°
2026-04-11 08:21 13.31009 -91.69650 31905 ft 504 kts 312°
2026-04-11 08:21 13.35101 -91.73921 31905 ft 504 kts 312°
2026-04-11 08:22 13.40024 -91.79063 31904 ft 504 kts 312°
2026-04-11 08:22 13.44936 -91.84196 31904 ft 504 kts 312°
2026-04-11 08:23 13.49852 -91.89336 31903 ft 504 kts 312°
2026-04-11 08:23 13.54763 -91.94475 31904 ft 504 kts 312°
2026-04-11 08:24 13.59645 -91.99586 31903 ft 503 kts 312°
2026-04-11 08:24 13.64558 -92.04733 31902 ft 503 kts 312°
2026-04-11 08:25 13.69464 -92.09876 31903 ft 503 kts 312°
2026-04-11 08:25 13.74359 -92.15011 31901 ft 503 kts 312°
2026-04-11 08:26 13.79256 -92.20151 31900 ft 503 kts 312°
2026-04-11 08:26 13.84152 -92.25294 31897 ft 503 kts 312°
2026-04-11 08:27 13.89017 -92.30407 31899 ft 503 kts 312°
2026-04-11 08:27 13.93915 -92.35558 31899 ft 503 kts 312°
2026-04-11 08:28 13.98810 -92.40709 31898 ft 503 kts 312°
2026-04-11 08:28 14.03704 -92.45863 31899 ft 503 kts 312°
2026-04-11 08:29 14.08605 -92.51028 31906 ft 503 kts 312°
2026-04-11 08:29 14.13494 -92.56184 31909 ft 503 kts 312°
2026-04-11 08:30 14.18351 -92.61309 31907 ft 503 kts 312°
2026-04-11 08:30 14.23242 -92.66474 31909 ft 503 kts 312°
2026-04-11 08:31 14.28086 -92.71666 31913 ft 502 kts 311°
2026-04-11 08:31 14.32837 -92.76957 31912 ft 502 kts 310°
2026-04-11 08:32 14.37575 -92.82256 31916 ft 502 kts 310°
2026-04-11 08:32 14.42318 -92.87537 31912 ft 502 kts 310°
2026-04-11 08:33 14.47072 -92.92818 31890 ft 501 kts 310°
2026-04-11 08:33 14.51817 -92.98090 31889 ft 501 kts 310°
2026-04-11 08:34 14.56530 -93.03331 31892 ft 501 kts 310°
2026-04-11 08:34 14.61263 -93.08599 31907 ft 500 kts 310°
2026-04-11 08:35 14.65995 -93.13870 31906 ft 500 kts 310°
2026-04-11 08:35 14.70724 -93.19141 31889 ft 500 kts 310°
2026-04-11 08:36 14.75452 -93.24416 31890 ft 500 kts 310°
2026-04-11 08:36 14.80179 -93.29692 31888 ft 500 kts 310°
2026-04-11 08:37 14.84898 -93.34962 31910 ft 500 kts 310°
2026-04-11 08:37 14.89622 -93.40242 31894 ft 500 kts 310°
2026-04-11 08:38 14.94341 -93.45521 31890 ft 500 kts 310°
2026-04-11 08:38 14.99061 -93.50805 31893 ft 500 kts 310°
2026-04-11 08:39 15.03784 -93.56095 31890 ft 500 kts 310°
2026-04-11 08:39 15.08497 -93.61379 31888 ft 500 kts 310°
2026-04-11 08:40 15.13213 -93.66664 31887 ft 500 kts 311°
2026-04-11 08:40 15.18007 -93.71819 31887 ft 500 kts 312°
2026-04-11 08:41 15.22882 -93.76946 31887 ft 500 kts 312°
2026-04-11 08:41 15.27745 -93.82084 31890 ft 499 kts 312°
2026-04-11 08:42 15.32590 -93.87236 31888 ft 499 kts 312°
2026-04-11 08:43 15.39844 -93.94971 31893 ft 498 kts 312°
2026-04-11 08:43 15.44674 -94.00125 31898 ft 498 kts 311°
2026-04-11 08:44 15.49502 -94.05279 31895 ft 498 kts 311°
2026-04-11 08:44 15.54326 -94.10432 31899 ft 498 kts 311°
2026-04-11 08:45 15.59150 -94.15589 31900 ft 497 kts 311°
2026-04-11 08:45 15.63966 -94.20741 31904 ft 497 kts 311°
2026-04-11 08:46 15.68784 -94.25899 31903 ft 497 kts 311°
2026-04-11 08:46 15.73568 -94.31025 31904 ft 497 kts 311°
2026-04-11 08:47 15.78382 -94.36186 31909 ft 497 kts 311°
2026-04-11 08:47 15.83192 -94.41346 31912 ft 497 kts 311°
2026-04-11 08:48 15.88007 -94.46516 31909 ft 497 kts 311°
2026-04-11 08:48 15.92779 -94.51644 31913 ft 497 kts 311°
2026-04-11 08:49 15.97581 -94.56807 31913 ft 496 kts 311°
2026-04-11 08:49 16.02382 -94.61973 31918 ft 496 kts 311°
2026-04-11 08:50 16.07186 -94.67146 31923 ft 496 kts 311°
2026-04-11 08:50 16.11943 -94.72273 31925 ft 496 kts 311°
2026-04-11 08:51 16.16732 -94.77438 31932 ft 496 kts 311°
2026-04-11 08:51 16.21526 -94.82611 31935 ft 496 kts 311°
2026-04-11 08:52 16.28712 -94.90375 31943 ft 497 kts 311°
2026-04-11 08:52 16.33506 -94.95559 31952 ft 497 kts 311°
2026-04-11 08:53 16.38304 -95.00752 31959 ft 497 kts 311°
2026-04-11 08:53 16.43106 -95.05953 31968 ft 497 kts 311°
2026-04-11 08:54 16.47884 -95.11160 31979 ft 497 kts 310°
2026-04-11 08:54 16.52422 -95.16513 31988 ft 496 kts 308°
2026-04-11 08:55 16.56929 -95.21966 32000 ft 496 kts 308°
2026-04-11 08:55 16.61465 -95.27400 32016 ft 497 kts 308°
2026-04-11 08:56 16.66023 -95.32820 32023 ft 497 kts 308°
2026-04-11 08:56 16.70586 -95.38241 32037 ft 497 kts 308°
2026-04-11 08:57 16.75146 -95.43668 32048 ft 497 kts 308°
2026-04-11 08:57 16.79707 -95.49101 32064 ft 497 kts 308°
2026-04-11 08:58 16.84224 -95.54487 32071 ft 496 kts 308°
2026-04-11 08:58 16.88777 -95.59919 32076 ft 497 kts 308°
2026-04-11 08:59 16.93326 -95.65353 32100 ft 496 kts 308°
2026-04-11 08:59 16.97875 -95.70792 32090 ft 497 kts 308°
2026-04-11 09:00 17.02418 -95.76225 32101 ft 496 kts 308°
2026-04-11 09:00 17.06956 -95.81657 32114 ft 496 kts 308°
2026-04-11 09:01 17.11488 -95.87088 32109 ft 495 kts 308°
2026-04-11 09:01 17.15984 -95.92481 32132 ft 495 kts 308°
2026-04-11 09:02 17.20501 -95.97903 32123 ft 495 kts 308°
2026-04-11 09:02 17.25019 -96.03333 32127 ft 495 kts 308°
2026-04-11 09:03 17.29540 -96.08770 32141 ft 495 kts 308°
2026-04-11 09:03 17.34067 -96.14208 32155 ft 496 kts 308°
2026-04-11 09:04 17.38609 -96.19657 32151 ft 496 kts 308°
2026-04-11 09:04 17.43116 -96.25073 32149 ft 497 kts 308°
2026-04-11 09:05 17.47654 -96.30544 32146 ft 497 kts 308°
2026-04-11 09:05 17.52178 -96.36002 32141 ft 495 kts 308°
2026-04-11 09:06 17.56680 -96.41440 32150 ft 494 kts 308°
2026-04-11 09:06 17.61189 -96.46889 32151 ft 494 kts 308°
2026-04-11 09:07 17.65699 -96.52344 32145 ft 495 kts 308°
2026-04-11 09:07 17.70213 -96.57806 32145 ft 495 kts 308°
2026-04-11 09:08 17.74693 -96.63236 32159 ft 495 kts 308°
2026-04-11 09:08 17.79207 -96.68713 32153 ft 496 kts 308°
2026-04-11 09:09 17.83720 -96.74191 32142 ft 496 kts 308°
2026-04-11 09:09 17.88231 -96.79672 32152 ft 495 kts 308°
2026-04-11 09:10 17.91985 -96.84231 32158 ft 496 kts 308°
2026-04-11 09:10 17.96500 -96.89724 32148 ft 497 kts 308°
2026-04-11 09:11 18.01023 -96.95230 32118 ft 497 kts 308°
2026-04-11 09:11 18.05539 -97.00733 32156 ft 496 kts 308°
2026-04-11 09:12 18.10041 -97.06228 32154 ft 496 kts 308°
2026-04-11 09:12 18.14554 -97.11739 32151 ft 496 kts 308°
2026-04-11 09:13 18.19058 -97.17241 32139 ft 496 kts 308°
2026-04-11 09:13 18.23530 -97.22708 32151 ft 495 kts 308°
2026-04-11 09:14 18.28030 -97.28216 32148 ft 495 kts 308°
2026-04-11 09:14 18.32521 -97.33718 32157 ft 495 kts 308°
2026-04-11 09:15 18.37011 -97.39223 32137 ft 496 kts 308°
2026-04-11 09:15 18.41506 -97.44739 32153 ft 496 kts 308°
2026-04-11 09:16 18.46005 -97.50267 32132 ft 497 kts 308°
2026-04-11 09:16 18.50477 -97.55763 32132 ft 497 kts 308°
2026-04-11 09:17 18.54977 -97.61302 32130 ft 496 kts 308°
2026-04-11 09:17 18.59469 -97.66833 32129 ft 497 kts 308°
2026-04-11 09:18 18.63966 -97.72376 32123 ft 497 kts 308°
2026-04-11 09:18 18.68461 -97.77922 32119 ft 497 kts 308°
2026-04-11 09:19 18.72958 -97.83475 32117 ft 498 kts 308°
2026-04-11 09:19 18.77429 -97.89003 32117 ft 498 kts 308°
2026-04-11 09:20 18.81927 -97.94569 32113 ft 498 kts 308°
2026-04-11 09:20 18.86427 -98.00142 32117 ft 498 kts 308°
2026-04-11 09:21 18.90928 -98.05722 32119 ft 498 kts 308°
2026-04-11 09:21 18.95417 -98.11293 32120 ft 498 kts 308°
2026-04-11 09:22 18.99909 -98.16871 32133 ft 498 kts 308°
2026-04-11 09:22 19.04367 -98.22414 32133 ft 498 kts 308°
2026-04-11 09:23 19.08860 -98.28005 32136 ft 498 kts 308°
2026-04-11 09:23 19.13341 -98.33586 32147 ft 498 kts 308°
2026-04-11 09:24 19.17923 -98.39093 32150 ft 499 kts 311°
2026-04-11 09:24 19.22767 -98.44351 32164 ft 499 kts 311°
2026-04-11 09:25 19.27619 -98.49603 32168 ft 499 kts 311°
2026-04-11 09:25 19.32423 -98.54840 32175 ft 499 kts 311°
2026-04-11 09:26 19.37252 -98.60125 32173 ft 499 kts 311°
2026-04-11 09:26 19.42075 -98.65411 32172 ft 499 kts 311°
2026-04-11 09:27 19.46900 -98.70701 32189 ft 499 kts 311°
2026-04-11 09:27 19.51719 -98.75986 32226 ft 498 kts 311°
2026-04-11 09:28 19.56543 -98.81286 32265 ft 499 kts 311°
2026-04-11 09:28 19.61326 -98.86544 32327 ft 499 kts 311°
2026-04-11 09:29 19.66142 -98.91843 32387 ft 498 kts 311°
2026-04-11 09:29 19.70950 -98.97139 32423 ft 497 kts 311°
2026-04-11 09:30 19.75739 -99.02432 32423 ft 496 kts 310°
2026-04-11 09:30 19.80463 -99.07780 32423 ft 496 kts 310°
2026-04-11 09:31 19.85162 -99.13143 32362 ft 495 kts 310°
2026-04-11 09:31 19.89863 -99.18500 32298 ft 496 kts 310°
2026-04-11 09:32 19.94572 -99.23861 32233 ft 496 kts 310°
2026-04-11 09:32 19.99255 -99.29191 32168 ft 496 kts 310°
2026-04-11 09:33 20.03971 -99.34564 32166 ft 497 kts 310°
2026-04-11 09:33 20.08693 -99.39950 32161 ft 497 kts 310°
2026-04-11 09:34 20.13411 -99.45337 32164 ft 497 kts 310°
2026-04-11 09:34 20.18123 -99.50723 32158 ft 497 kts 310°
2026-04-11 09:35 20.22833 -99.56112 32152 ft 497 kts 310°
2026-04-11 09:35 20.27540 -99.61501 32153 ft 496 kts 310°
2026-04-11 09:36 20.32239 -99.66887 32148 ft 497 kts 309°
2026-04-11 09:36 20.36939 -99.72280 32145 ft 496 kts 309°
2026-04-11 09:37 20.41635 -99.77672 32143 ft 496 kts 309°
2026-04-11 09:37 20.46324 -99.83064 32134 ft 496 kts 309°
2026-04-11 09:38 20.50984 -99.88427 32193 ft 495 kts 309°
2026-04-11 09:38 20.55673 -99.93824 32239 ft 495 kts 309°
2026-04-11 09:39 20.60354 -99.99220 32294 ft 495 kts 309°
2026-04-11 09:39 20.65031 -100.04618 32334 ft 495 kts 309°
2026-04-11 09:40 20.69710 -100.10023 32349 ft 495 kts 309°
2026-04-11 09:40 20.74381 -100.15424 32339 ft 495 kts 309°
2026-04-11 09:41 20.79057 -100.20837 32295 ft 495 kts 309°
2026-04-11 09:41 20.83733 -100.26254 32245 ft 495 kts 309°
2026-04-11 09:42 20.88373 -100.31633 32195 ft 495 kts 309°
2026-04-11 09:43 20.95366 -100.39751 32147 ft 494 kts 309°
2026-04-11 09:43 21.00031 -100.45175 32139 ft 494 kts 309°
2026-04-11 09:44 21.04686 -100.50592 32143 ft 494 kts 309°
2026-04-11 09:44 21.09339 -100.56012 32146 ft 494 kts 309°
2026-04-11 09:45 21.13990 -100.61436 32142 ft 494 kts 309°
2026-04-11 09:45 21.18636 -100.66858 32152 ft 494 kts 309°
2026-04-11 09:46 21.23257 -100.72258 32151 ft 494 kts 309°
2026-04-11 09:46 21.27908 -100.77696 32156 ft 495 kts 309°
2026-04-11 09:47 21.32563 -100.83146 32155 ft 495 kts 309°
2026-04-11 09:47 21.37222 -100.88606 32156 ft 496 kts 309°
2026-04-11 09:48 21.41877 -100.94066 32157 ft 496 kts 309°
2026-04-11 09:48 21.46540 -100.99541 32159 ft 497 kts 309°
2026-04-11 09:49 21.51208 -101.05027 32158 ft 497 kts 309°
2026-04-11 09:49 21.55845 -101.10483 32162 ft 497 kts 309°
2026-04-11 09:50 21.60508 -101.15977 32160 ft 497 kts 309°
2026-04-11 09:50 21.65165 -101.21467 32158 ft 497 kts 309°
2026-04-11 09:51 21.69831 -101.26973 32154 ft 498 kts 309°
2026-04-11 09:51 21.74494 -101.32484 32154 ft 498 kts 309°
2026-04-11 09:52 21.79156 -101.37997 32151 ft 498 kts 309°
2026-04-11 09:52 21.83816 -101.43514 32147 ft 498 kts 309°
2026-04-11 09:53 21.88465 -101.49024 32144 ft 497 kts 309°
2026-04-11 09:53 21.93118 -101.54545 32146 ft 497 kts 309°
2026-04-11 09:54 21.97734 -101.60027 32135 ft 497 kts 309°
2026-04-11 09:54 22.02385 -101.65557 32138 ft 497 kts 309°
2026-04-11 09:55 22.07027 -101.71081 32136 ft 497 kts 309°
2026-04-11 09:55 22.11673 -101.76617 32122 ft 498 kts 309°
2026-04-11 09:56 22.15533 -101.81221 32131 ft 498 kts 309°
2026-04-11 09:56 22.20184 -101.86773 32128 ft 498 kts 309°
2026-04-11 09:57 22.24830 -101.92325 32122 ft 498 kts 309°
2026-04-11 09:57 22.29468 -101.97874 32120 ft 498 kts 308°
2026-04-11 09:58 22.34108 -102.03431 32117 ft 498 kts 308°
2026-04-11 09:58 22.38746 -102.08991 32121 ft 498 kts 308°
2026-04-11 09:59 22.43359 -102.14527 32123 ft 498 kts 308°
2026-04-11 09:59 22.48000 -102.20104 32125 ft 498 kts 308°
2026-04-11 10:00 22.52633 -102.25677 32126 ft 498 kts 308°
2026-04-11 10:00 22.57270 -102.31260 32118 ft 498 kts 308°
2026-04-11 10:01 22.61900 -102.36841 32123 ft 497 kts 308°
2026-04-11 10:01 22.66519 -102.42414 32146 ft 497 kts 308°
2026-04-11 10:02 22.71110 -102.47961 32198 ft 497 kts 308°
2026-04-11 10:02 22.75729 -102.53548 32247 ft 497 kts 308°
2026-04-11 10:03 22.80341 -102.59132 32305 ft 497 kts 308°
2026-04-11 10:03 22.84953 -102.64723 32336 ft 497 kts 308°
2026-04-11 10:04 22.89562 -102.70310 32330 ft 497 kts 308°
2026-04-11 10:04 22.94330 -102.75712 32335 ft 498 kts 311°
2026-04-11 10:05 22.99207 -102.81048 32280 ft 498 kts 310°
2026-04-11 10:05 23.04062 -102.86411 32229 ft 497 kts 310°
2026-04-11 10:06 23.08882 -102.91793 32167 ft 496 kts 310°
2026-04-11 10:06 23.13693 -102.97183 32108 ft 496 kts 310°
2026-04-11 10:07 23.18501 -103.02578 32088 ft 497 kts 310°
2026-04-11 10:07 23.23314 -103.07978 32096 ft 496 kts 310°
2026-04-11 10:08 23.28085 -103.13338 32088 ft 496 kts 310°
2026-04-11 10:08 23.32883 -103.18735 32091 ft 496 kts 310°
2026-04-11 10:09 23.37674 -103.24126 32092 ft 496 kts 310°
2026-04-11 10:09 23.42472 -103.29535 32098 ft 496 kts 310°
2026-04-11 10:10 23.47266 -103.34946 32090 ft 496 kts 310°
2026-04-11 10:10 23.52056 -103.40355 32084 ft 495 kts 310°
2026-04-11 10:11 23.56835 -103.45760 32085 ft 495 kts 309°
2026-04-11 10:11 23.61579 -103.51131 32084 ft 494 kts 309°
2026-04-11 10:12 23.66348 -103.56537 32079 ft 494 kts 309°
2026-04-11 10:12 23.71118 -103.61950 32076 ft 494 kts 309°
2026-04-11 10:13 23.75881 -103.67361 32078 ft 493 kts 309°
2026-04-11 10:13 23.80636 -103.72771 32069 ft 493 kts 309°
2026-04-11 10:14 23.85362 -103.78150 32064 ft 493 kts 309°
2026-04-11 10:14 23.90112 -103.83563 32061 ft 492 kts 309°
2026-04-11 10:15 23.94855 -103.88977 32063 ft 493 kts 309°
2026-04-11 10:15 23.99567 -103.94362 32058 ft 493 kts 309°
2026-04-11 10:16 24.04323 -103.99804 32058 ft 494 kts 309°
2026-04-11 10:16 24.09074 -104.05246 32062 ft 495 kts 309°
2026-04-11 10:17 24.13832 -104.10700 32065 ft 494 kts 309°
2026-04-11 10:17 24.18554 -104.16123 32063 ft 494 kts 309°
2026-04-11 10:18 24.23327 -104.21610 32048 ft 494 kts 309°
2026-04-11 10:18 24.28063 -104.27061 32047 ft 493 kts 309°
2026-04-11 10:19 24.32790 -104.32507 32045 ft 493 kts 309°
2026-04-11 10:19 24.37486 -104.37922 32052 ft 492 kts 309°
2026-04-11 10:20 24.42206 -104.43369 32049 ft 492 kts 309°
2026-04-11 10:20 24.46920 -104.48816 32049 ft 492 kts 309°
2026-04-11 10:21 24.51624 -104.54262 32052 ft 492 kts 309°
2026-04-11 10:21 24.56331 -104.59718 32049 ft 492 kts 309°
2026-04-11 10:22 24.61011 -104.65148 32050 ft 491 kts 309°
2026-04-11 10:22 24.65715 -104.70607 32048 ft 491 kts 309°
2026-04-11 10:23 24.70409 -104.76066 32056 ft 490 kts 309°
2026-04-11 10:23 24.75088 -104.81516 32058 ft 490 kts 309°
2026-04-11 10:24 24.79766 -104.86968 32057 ft 490 kts 309°
2026-04-11 10:24 24.84449 -104.92432 32057 ft 490 kts 309°
2026-04-11 10:25 24.89119 -104.97888 32056 ft 489 kts 309°
2026-04-11 10:25 24.93757 -105.03314 32064 ft 489 kts 309°
2026-04-11 10:26 24.98421 -105.08776 32057 ft 489 kts 309°
2026-04-11 10:26 25.03079 -105.14237 32062 ft 489 kts 309°
2026-04-11 10:27 25.07743 -105.19712 32059 ft 489 kts 309°
2026-04-11 10:27 25.12403 -105.25190 32055 ft 489 kts 309°
2026-04-11 10:28 25.17062 -105.30672 32061 ft 490 kts 309°
2026-04-11 10:28 25.21717 -105.36157 32062 ft 489 kts 309°
2026-04-11 10:29 25.26376 -105.41652 32061 ft 490 kts 309°
2026-04-11 10:29 25.31003 -105.47116 32068 ft 490 kts 309°
2026-04-11 10:30 25.35667 -105.52628 32065 ft 490 kts 308°
2026-04-11 10:30 25.40322 -105.58140 32073 ft 490 kts 308°
2026-04-11 10:31 25.44976 -105.63658 32087 ft 490 kts 308°
2026-04-11 10:31 25.49633 -105.69184 32074 ft 491 kts 308°
2026-04-11 10:32 25.54285 -105.74711 32091 ft 490 kts 308°
2026-04-11 10:32 25.58933 -105.80241 32095 ft 490 kts 308°
2026-04-11 10:33 25.63584 -105.85778 32095 ft 490 kts 308°
2026-04-11 10:33 25.68193 -105.91275 32107 ft 490 kts 308°
2026-04-11 10:34 25.72843 -105.96814 32110 ft 491 kts 308°
2026-04-11 10:34 25.77506 -106.02377 32109 ft 492 kts 308°
2026-04-11 10:35 25.82162 -106.07939 32106 ft 492 kts 308°
2026-04-11 10:35 25.86820 -106.13510 32116 ft 491 kts 308°
2026-04-11 10:36 25.91441 -106.19046 32121 ft 492 kts 308°
2026-04-11 10:36 25.96096 -106.24629 32121 ft 492 kts 308°
2026-04-11 10:37 26.00745 -106.30213 32122 ft 492 kts 308°
2026-04-11 10:37 26.05386 -106.35796 32127 ft 491 kts 308°
2026-04-11 10:38 26.10027 -106.41381 32130 ft 492 kts 308°
2026-04-11 10:38 26.16988 -106.49773 32129 ft 491 kts 308°
2026-04-11 10:39 26.21620 -106.55369 32119 ft 491 kts 308°
2026-04-11 10:39 26.26246 -106.60965 32119 ft 491 kts 308°
2026-04-11 10:40 26.30873 -106.66567 32132 ft 492 kts 308°
2026-04-11 10:40 26.35508 -106.72187 32117 ft 492 kts 308°
2026-04-11 10:41 26.40142 -106.77814 32105 ft 492 kts 308°
2026-04-11 10:41 26.44772 -106.83441 32114 ft 492 kts 308°
2026-04-11 10:42 26.49365 -106.89034 32107 ft 491 kts 308°
2026-04-11 10:42 26.53232 -106.93750 32099 ft 492 kts 308°
2026-04-11 10:43 26.60152 -107.02205 32103 ft 492 kts 308°
2026-04-11 10:44 26.64779 -107.07868 32081 ft 493 kts 308°
2026-04-11 10:44 26.69399 -107.13533 32080 ft 492 kts 308°
2026-04-11 10:45 26.73971 -107.19129 32079 ft 493 kts 308°
2026-04-11 10:45 26.78603 -107.24825 32084 ft 493 kts 308°
2026-04-11 10:46 26.83223 -107.30512 32080 ft 493 kts 308°
2026-04-11 10:46 26.87834 -107.36193 32083 ft 492 kts 308°
2026-04-11 10:47 26.92446 -107.41878 32089 ft 492 kts 308°
2026-04-11 10:47 26.97052 -107.47563 32071 ft 493 kts 306°
2026-04-11 10:48 27.01700 -107.53321 32078 ft 502 kts 306°
2026-04-11 10:48 27.06418 -107.59164 32077 ft 508 kts 306°
2026-04-11 10:49 27.11182 -107.65064 32080 ft 511 kts 306°
2026-04-11 10:49 27.15930 -107.70960 32079 ft 513 kts 306°
2026-04-11 10:50 27.20704 -107.76908 32073 ft 512 kts 305°
2026-04-11 10:50 27.25459 -107.82831 32077 ft 509 kts 306°
2026-04-11 10:51 27.30188 -107.88729 32071 ft 508 kts 305°
2026-04-11 10:51 27.34901 -107.94623 32083 ft 506 kts 305°
2026-04-11 10:52 27.39612 -108.00519 32079 ft 507 kts 305°
2026-04-11 10:52 27.44312 -108.06409 32074 ft 509 kts 305°
2026-04-11 10:53 27.49050 -108.12358 32042 ft 510 kts 305°
2026-04-11 10:53 27.53786 -108.18313 32074 ft 510 kts 305°
2026-04-11 10:54 27.58528 -108.24280 32048 ft 513 kts 305°
2026-04-11 10:54 27.63290 -108.30276 32047 ft 514 kts 305°
2026-04-11 10:55 27.68065 -108.36302 32044 ft 515 kts 306°
2026-04-11 10:55 27.72844 -108.42343 32049 ft 515 kts 305°
2026-04-11 10:56 27.77617 -108.48385 32053 ft 515 kts 305°
2026-04-11 10:56 27.82393 -108.54440 32049 ft 516 kts 305°
2026-04-11 10:57 27.87141 -108.60459 32047 ft 516 kts 305°
2026-04-11 10:57 27.91923 -108.66518 32051 ft 516 kts 305°
2026-04-11 10:58 27.96697 -108.72579 32054 ft 515 kts 304°
2026-04-11 10:58 28.01472 -108.78655 32046 ft 517 kts 304°
2026-04-11 10:59 28.06259 -108.84754 32037 ft 518 kts 304°
2026-04-11 10:59 28.11039 -108.90853 32053 ft 518 kts 304°
2026-04-11 11:00 28.15822 -108.96964 32048 ft 519 kts 304°
2026-04-11 11:00 28.20625 -109.03106 32034 ft 520 kts 304°
2026-04-11 11:01 28.25412 -109.09241 32032 ft 520 kts 304°
2026-04-11 11:01 28.30175 -109.15357 32037 ft 520 kts 304°
2026-04-11 11:02 28.34972 -109.21532 32000 ft 521 kts 304°
2026-04-11 11:02 28.39770 -109.27716 32004 ft 522 kts 304°
2026-04-11 11:03 28.44566 -109.33913 31990 ft 522 kts 304°
2026-04-11 11:03 28.49363 -109.40121 31984 ft 523 kts 304°
2026-04-11 11:04 28.54164 -109.46339 31974 ft 523 kts 304°
2026-04-11 11:04 28.58960 -109.52559 31978 ft 523 kts 304°
2026-04-11 11:05 28.63761 -109.58799 31959 ft 524 kts 304°
2026-04-11 11:05 28.68553 -109.65037 31952 ft 523 kts 304°
2026-04-11 11:06 28.73344 -109.71281 31983 ft 523 kts 304°
2026-04-11 11:06 28.78111 -109.77502 31963 ft 524 kts 304°
2026-04-11 11:07 28.82900 -109.83763 31968 ft 524 kts 304°
2026-04-11 11:07 28.87693 -109.90038 31966 ft 524 kts 304°
2026-04-11 11:08 28.92482 -109.96317 31973 ft 524 kts 304°
2026-04-11 11:08 28.97265 -110.02598 31969 ft 524 kts 304°
2026-04-11 11:09 29.02039 -110.08877 31963 ft 523 kts 304°
2026-04-11 11:09 29.06774 -110.15115 31964 ft 522 kts 304°
2026-04-11 11:10 29.11528 -110.21388 31961 ft 521 kts 304°
2026-04-11 11:10 29.16275 -110.27660 31960 ft 520 kts 304°
2026-04-11 11:11 29.21005 -110.33922 31958 ft 520 kts 304°
2026-04-11 11:11 29.25735 -110.40192 31954 ft 520 kts 304°
2026-04-11 11:12 29.30426 -110.46420 31955 ft 519 kts 304°
2026-04-11 11:12 29.35141 -110.52691 31986 ft 519 kts 304°
2026-04-11 11:13 29.39858 -110.58968 31988 ft 519 kts 304°
2026-04-11 11:13 29.44576 -110.65253 31979 ft 520 kts 304°
2026-04-11 11:14 29.49293 -110.71549 31982 ft 520 kts 304°
2026-04-11 11:14 29.53985 -110.77819 31981 ft 521 kts 304°
2026-04-11 11:15 29.58703 -110.84135 31980 ft 521 kts 304°
2026-04-11 11:15 29.63417 -110.90455 31985 ft 521 kts 304°
2026-04-11 11:16 29.68134 -110.96790 31977 ft 521 kts 303°
2026-04-11 11:16 29.72843 -111.03124 31983 ft 521 kts 303°
2026-04-11 11:17 29.77552 -111.09467 31985 ft 521 kts 303°
2026-04-11 11:17 29.82256 -111.15815 31987 ft 520 kts 303°
2026-04-11 11:18 29.86954 -111.22163 31986 ft 520 kts 303°
2026-04-11 11:18 29.91612 -111.28468 31986 ft 520 kts 303°
2026-04-11 11:19 29.96293 -111.34815 31982 ft 519 kts 302°
2026-04-11 11:19 30.00959 -111.41151 31987 ft 518 kts 302°
2026-04-11 11:20 30.05630 -111.47505 31980 ft 518 kts 302°
2026-04-11 11:20 30.10292 -111.53856 31983 ft 517 kts 302°
2026-04-11 11:21 30.14944 -111.60203 31976 ft 517 kts 302°
2026-04-11 11:21 30.19550 -111.66497 31982 ft 516 kts 302°
2026-04-11 11:22 30.24178 -111.72832 31983 ft 516 kts 302°
2026-04-11 11:22 30.28800 -111.79170 31973 ft 515 kts 302°
2026-04-11 11:23 30.33418 -111.85510 31968 ft 514 kts 302°
2026-04-11 11:23 30.38025 -111.91847 31968 ft 513 kts 302°
2026-04-11 11:24 30.42619 -111.98178 31972 ft 513 kts 302°
2026-04-11 11:24 30.47214 -112.04517 31965 ft 513 kts 302°
2026-04-11 11:25 30.51776 -112.10820 31963 ft 513 kts 302°
2026-04-11 11:25 30.56358 -112.17164 31965 ft 512 kts 302°
2026-04-11 11:26 30.60925 -112.23496 31958 ft 512 kts 302°
2026-04-11 11:26 30.65491 -112.29837 31960 ft 511 kts 302°
2026-04-11 11:27 30.70046 -112.36175 31970 ft 511 kts 302°
2026-04-11 11:27 30.74595 -112.42511 31975 ft 510 kts 302°
2026-04-11 11:28 30.79134 -112.48847 31982 ft 509 kts 302°
2026-04-11 11:28 30.83670 -112.55187 31984 ft 509 kts 302°
2026-04-11 11:29 30.90420 -112.64641 31979 ft 507 kts 302°
2026-04-11 11:29 30.94924 -112.70961 31977 ft 506 kts 302°
2026-04-11 11:30 30.99415 -112.77274 31978 ft 505 kts 302°
2026-04-11 11:30 31.03136 -112.82513 31975 ft 504 kts 302°
2026-04-11 11:31 31.07601 -112.88808 31977 ft 503 kts 302°
2026-04-11 11:31 31.12055 -112.95100 31972 ft 502 kts 302°
2026-04-11 11:32 31.16493 -113.01378 31956 ft 501 kts 302°
2026-04-11 11:32 31.20929 -113.07664 31971 ft 501 kts 302°
2026-04-11 11:33 31.25367 -113.13964 31955 ft 501 kts 302°
2026-04-11 11:33 31.29801 -113.20268 31960 ft 502 kts 302°
2026-04-11 11:34 31.34237 -113.26584 31962 ft 502 kts 302°
2026-04-11 11:34 31.38649 -113.32920 31958 ft 502 kts 301°
2026-04-11 11:35 31.42950 -113.39357 31954 ft 501 kts 301°
2026-04-11 11:35 31.47194 -113.45776 31953 ft 502 kts 301°
2026-04-11 11:36 31.51477 -113.52234 31950 ft 502 kts 301°
2026-04-11 11:36 31.55766 -113.58686 31942 ft 501 kts 301°
2026-04-11 11:37 31.60055 -113.65145 31932 ft 501 kts 301°
2026-04-11 11:37 31.64330 -113.71593 31928 ft 500 kts 301°
2026-04-11 11:38 31.68593 -113.78036 31920 ft 499 kts 301°
2026-04-11 11:38 31.72846 -113.84475 31912 ft 498 kts 301°
2026-04-11 11:39 31.77095 -113.90920 31906 ft 498 kts 301°
2026-04-11 11:39 31.81331 -113.97355 31899 ft 497 kts 301°
2026-04-11 11:40 31.85526 -114.03739 31894 ft 496 kts 301°
2026-04-11 11:40 31.89745 -114.10171 31890 ft 495 kts 302°
2026-04-11 11:41 31.93953 -114.16597 31884 ft 495 kts 302°
2026-04-11 11:41 31.98155 -114.23023 31878 ft 494 kts 302°
2026-04-11 11:42 32.02347 -114.29445 31870 ft 494 kts 302°
2026-04-11 11:42 32.06526 -114.35859 31866 ft 493 kts 302°
2026-04-11 11:43 32.10698 -114.42271 31869 ft 492 kts 302°
2026-04-11 11:43 32.14856 -114.48673 31883 ft 491 kts 302°
2026-04-11 11:44 32.18970 -114.55021 31874 ft 490 kts 302°
2026-04-11 11:44 32.23107 -114.61413 31881 ft 489 kts 302°
2026-04-11 11:45 32.27228 -114.67791 31892 ft 488 kts 302°
2026-04-11 11:45 32.31341 -114.74168 31896 ft 486 kts 303°
2026-04-11 11:46 32.35434 -114.80525 31907 ft 485 kts 303°
2026-04-11 11:46 32.39518 -114.86874 31909 ft 484 kts 303°
2026-04-11 11:47 32.43586 -114.93207 31914 ft 482 kts 303°
2026-04-11 11:47 32.47634 -114.99521 31908 ft 481 kts 303°
2026-04-11 11:48 32.51676 -115.05836 31919 ft 479 kts 302°
2026-04-11 11:48 32.55696 -115.12130 31918 ft 478 kts 302°
2026-04-11 11:49 32.59685 -115.18385 31929 ft 478 kts 302°
2026-04-11 11:49 32.63921 -115.24489 31937 ft 482 kts 309°
2026-04-11 11:50 32.69000 -115.29761 31944 ft 487 kts 315°
2026-04-11 11:50 32.74209 -115.34921 31943 ft 487 kts 314°
2026-04-11 11:51 32.79384 -115.40119 31940 ft 487 kts 314°
2026-04-11 11:51 32.84549 -115.45336 31938 ft 487 kts 314°
2026-04-11 11:52 32.89685 -115.50532 31939 ft 488 kts 314°
2026-04-11 11:52 32.94889 -115.55802 31940 ft 488 kts 314°
2026-04-11 11:53 33.00018 -115.61003 31945 ft 487 kts 314°
2026-04-11 11:53 33.05181 -115.66246 31978 ft 487 kts 314°
2026-04-11 11:54 33.10369 -115.71523 31983 ft 486 kts 314°
2026-04-11 11:54 33.15516 -115.76767 31987 ft 486 kts 314°
2026-04-11 11:55 33.20620 -115.81976 31987 ft 486 kts 314°
2026-04-11 11:55 33.25756 -115.87226 31989 ft 486 kts 314°
2026-04-11 11:56 33.30890 -115.92482 31989 ft 486 kts 314°
2026-04-11 11:56 33.36029 -115.97752 31985 ft 486 kts 314°
2026-04-11 11:57 33.41169 -116.03031 31979 ft 486 kts 314°
2026-04-11 11:57 33.46300 -116.08310 31973 ft 487 kts 314°
2026-04-11 11:58 33.51433 -116.13599 31974 ft 487 kts 314°
2026-04-11 11:58 33.56570 -116.18901 31983 ft 487 kts 314°
2026-04-11 11:59 33.61703 -116.24207 31963 ft 487 kts 314°
2026-04-11 11:59 33.66805 -116.29490 31956 ft 488 kts 314°
2026-04-11 12:00 33.71943 -116.34820 31965 ft 488 kts 314°
2026-04-11 12:00 33.77092 -116.40167 31955 ft 488 kts 314°
2026-04-11 12:01 33.82240 -116.45524 31953 ft 489 kts 314°
2026-04-11 12:01 33.87376 -116.50877 31962 ft 488 kts 314°
2026-04-11 12:02 33.92501 -116.56227 31956 ft 488 kts 315°
2026-04-11 12:02 33.97620 -116.61581 31953 ft 487 kts 315°
2026-04-11 12:03 34.02689 -116.66889 31962 ft 485 kts 315°
2026-04-11 12:03 34.07784 -116.72233 31959 ft 485 kts 315°
2026-04-11 12:04 34.12864 -116.77576 31969 ft 484 kts 315°
2026-04-11 12:04 34.17944 -116.82925 31977 ft 483 kts 315°
2026-04-11 12:05 34.22984 -116.88234 31985 ft 483 kts 315°
2026-04-11 12:05 34.28041 -116.93575 31994 ft 482 kts 315°
2026-04-11 12:06 34.33090 -116.98918 31989 ft 481 kts 315°
2026-04-11 12:06 34.38124 -117.04254 31983 ft 480 kts 315°
2026-04-11 12:07 34.43137 -117.09573 31996 ft 479 kts 315°
2026-04-11 12:07 34.48142 -117.14896 32012 ft 478 kts 315°
2026-04-11 12:08 34.53137 -117.20217 32026 ft 478 kts 315°
2026-04-11 12:08 34.58128 -117.25541 32047 ft 477 kts 315°
2026-04-11 12:09 34.63082 -117.30833 32054 ft 477 kts 315°
2026-04-11 12:09 34.68049 -117.36150 32049 ft 476 kts 315°
2026-04-11 12:10 34.73027 -117.41487 32035 ft 475 kts 315°
2026-04-11 12:10 34.77984 -117.46809 32017 ft 475 kts 315°
2026-04-11 12:11 34.82930 -117.52130 31996 ft 474 kts 315°
2026-04-11 12:11 34.87871 -117.57453 31982 ft 474 kts 315°
2026-04-11 12:12 34.92810 -117.62785 31972 ft 473 kts 315°
2026-04-11 12:12 34.97741 -117.68115 31975 ft 473 kts 315°
2026-04-11 12:13 35.02656 -117.73437 31978 ft 473 kts 315°
2026-04-11 12:13 35.07545 -117.78741 31984 ft 472 kts 315°
2026-04-11 12:14 35.11654 -117.83204 31990 ft 472 kts 315°
2026-04-11 12:14 35.17349 -117.89402 32003 ft 471 kts 315°
2026-04-11 12:15 35.21448 -117.93869 32003 ft 471 kts 315°
2026-04-11 12:15 35.26338 -117.99208 31996 ft 470 kts 315°
2026-04-11 12:16 35.31213 -118.04539 31979 ft 469 kts 315°
2026-04-11 12:16 35.36044 -118.09832 31995 ft 469 kts 315°
2026-04-11 12:17 35.40902 -118.15161 31990 ft 468 kts 315°
2026-04-11 12:17 35.45756 -118.20496 32000 ft 468 kts 315°
2026-04-11 12:18 35.50605 -118.25836 31983 ft 468 kts 315°
2026-04-11 12:19 35.57873 -118.33853 31992 ft 468 kts 315°
2026-04-11 12:19 35.62719 -118.39211 32008 ft 469 kts 315°
2026-04-11 12:20 35.67571 -118.44586 32019 ft 469 kts 315°
2026-04-11 12:20 35.72391 -118.49932 32017 ft 469 kts 315°
2026-04-11 12:21 35.77239 -118.55319 32027 ft 469 kts 315°
2026-04-11 12:21 35.82074 -118.60703 32045 ft 468 kts 315°
2026-04-11 12:22 35.86906 -118.66092 32036 ft 469 kts 315°
2026-04-11 12:22 35.91740 -118.71489 32049 ft 469 kts 314°
2026-04-11 12:23 35.96568 -118.76889 32040 ft 467 kts 314°
2026-04-11 12:23 35.98959 -118.79567 31895 ft 459 kts 314°
2026-04-11 12:23 36.01311 -118.82200 31419 ft 451 kts 314°
2026-04-11 12:23 36.03603 -118.84772 30829 ft 438 kts 314°
2026-04-11 12:24 36.05808 -118.87245 29871 ft 430 kts 314°
2026-04-11 12:24 36.08010 -118.89721 28632 ft 426 kts 314°
2026-04-11 12:24 36.10185 -118.92170 27434 ft 422 kts 314°
2026-04-11 12:24 36.12348 -118.94605 26331 ft 417 kts 314°
2026-04-11 12:25 36.14479 -118.97007 25303 ft 412 kts 314°
2026-04-11 12:25 36.16592 -118.99390 24297 ft 407 kts 314°
2026-04-11 12:25 36.18681 -119.01747 23270 ft 404 kts 314°
2026-04-11 12:25 36.20742 -119.04076 22205 ft 399 kts 314°
2026-04-11 12:26 36.22780 -119.06378 21251 ft 392 kts 314°
2026-04-11 12:26 36.24778 -119.08636 20320 ft 386 kts 313°
2026-04-11 12:26 36.26749 -119.10867 19401 ft 380 kts 313°
2026-04-11 12:26 36.28687 -119.13063 18493 ft 376 kts 313°
2026-04-11 12:27 36.30611 -119.15243 17490 ft 371 kts 313°
2026-04-11 12:27 36.32508 -119.17397 16486 ft 368 kts 313°
2026-04-11 12:27 36.34366 -119.19506 15628 ft 365 kts 313°
2026-04-11 12:27 36.36267 -119.21668 15320 ft 367 kts 313°
2026-04-11 12:28 36.38130 -119.23788 15163 ft 371 kts 313°
2026-04-11 12:28 36.40032 -119.25953 15039 ft 369 kts 313°
2026-04-11 12:28 36.41913 -119.28092 15031 ft 364 kts 313°
2026-04-11 12:28 36.43782 -119.30220 15025 ft 363 kts 313°
2026-04-11 12:29 36.45647 -119.32346 15030 ft 365 kts 313°
2026-04-11 12:29 36.47522 -119.34485 15035 ft 367 kts 313°
2026-04-11 12:29 36.49402 -119.36632 15032 ft 368 kts 313°
2026-04-11 12:29 36.51294 -119.38792 15029 ft 369 kts 313°
2026-04-11 12:30 36.53185 -119.40953 15024 ft 369 kts 313°
2026-04-11 12:30 36.55090 -119.43132 15021 ft 369 kts 313°
2026-04-11 12:30 36.56982 -119.45296 15020 ft 368 kts 313°
2026-04-11 12:30 36.58867 -119.47454 15014 ft 368 kts 313°
2026-04-11 12:31 36.60747 -119.49608 15009 ft 367 kts 313°
2026-04-11 12:31 36.62625 -119.51762 15008 ft 366 kts 313°
2026-04-11 12:31 36.64498 -119.53912 15009 ft 366 kts 313°
2026-04-11 12:31 36.66370 -119.56061 15010 ft 365 kts 313°
2026-04-11 12:32 36.68239 -119.58209 15008 ft 365 kts 313°
2026-04-11 12:32 36.70107 -119.60357 15007 ft 365 kts 313°
2026-04-11 12:32 36.71970 -119.62501 15009 ft 365 kts 313°
2026-04-11 12:32 36.73836 -119.64651 15012 ft 365 kts 313°
2026-04-11 12:33 36.75697 -119.66796 15009 ft 365 kts 313°
2026-04-11 12:33 36.77567 -119.68953 15012 ft 365 kts 313°
2026-04-11 12:33 36.79406 -119.71075 15011 ft 366 kts 313°
2026-04-11 12:33 36.81276 -119.73235 15011 ft 366 kts 313°
2026-04-11 12:34 36.83146 -119.75395 15011 ft 366 kts 313°
2026-04-11 12:34 36.85015 -119.77555 15010 ft 366 kts 313°
2026-04-11 12:34 36.86830 -119.79759 15004 ft 361 kts 308°
2026-04-11 12:34 36.88307 -119.82272 15010 ft 359 kts 298°
2026-04-11 12:35 36.89468 -119.85029 15011 ft 357 kts 291°
2026-04-11 12:35 36.90339 -119.87934 15012 ft 356 kts 287°
2026-04-11 12:35 36.91161 -119.90847 14729 ft 355 kts 287°
2026-04-11 12:35 36.91985 -119.93753 14262 ft 354 kts 287°
2026-04-11 12:36 36.92808 -119.96649 13750 ft 353 kts 287°
2026-04-11 12:36 36.93631 -119.99541 13171 ft 352 kts 287°
2026-04-11 12:36 36.94454 -120.02426 12594 ft 352 kts 287°
2026-04-11 12:36 36.95277 -120.05312 12023 ft 352 kts 288°
2026-04-11 12:37 36.96099 -120.08191 11474 ft 352 kts 287°
2026-04-11 12:37 36.96922 -120.11076 10950 ft 352 kts 287°
2026-04-11 12:37 36.97743 -120.13953 10422 ft 351 kts 287°
2026-04-11 12:37 36.98565 -120.16838 10148 ft 355 kts 287°
2026-04-11 12:38 36.99399 -120.19769 10012 ft 357 kts 287°
2026-04-11 12:38 37.00217 -120.22641 9999 ft 353 kts 287°
2026-04-11 12:38 37.01038 -120.25527 9984 ft 351 kts 287°
2026-04-11 12:38 37.01857 -120.28410 9989 ft 352 kts 287°
2026-04-11 12:39 37.02678 -120.31306 9984 ft 353 kts 287°
2026-04-11 12:39 37.03499 -120.34204 9996 ft 354 kts 287°
2026-04-11 12:39 37.04320 -120.37106 9988 ft 354 kts 287°
2026-04-11 12:39 37.05144 -120.40020 9978 ft 355 kts 287°
2026-04-11 12:40 37.05968 -120.42938 9977 ft 355 kts 287°
2026-04-11 12:40 37.06793 -120.45860 9978 ft 355 kts 287°
2026-04-11 12:40 37.07611 -120.48766 9978 ft 354 kts 287°
2026-04-11 12:40 37.08431 -120.51676 9970 ft 354 kts 287°
2026-04-11 12:41 37.09238 -120.54547 9975 ft 354 kts 287°
2026-04-11 12:41 37.10054 -120.57451 9978 ft 353 kts 287°
2026-04-11 12:41 37.10869 -120.60355 9978 ft 352 kts 287°
2026-04-11 12:41 37.11683 -120.63258 9971 ft 352 kts 287°
2026-04-11 12:42 37.12495 -120.66158 9981 ft 352 kts 287°
2026-04-11 12:42 37.13305 -120.69054 9979 ft 352 kts 287°
2026-04-11 12:42 37.14113 -120.71946 9975 ft 352 kts 287°
2026-04-11 12:43 37.15718 -120.77703 9977 ft 352 kts 287°
2026-04-11 12:43 37.16518 -120.80574 9953 ft 342 kts 287°
2026-04-11 12:43 37.17287 -120.83329 9952 ft 327 kts 287°
2026-04-11 12:43 37.18021 -120.85961 9953 ft 312 kts 287°
2026-04-11 12:44 37.18718 -120.88469 9950 ft 297 kts 287°
2026-04-11 12:44 37.19383 -120.90861 9955 ft 286 kts 287°
2026-04-11 12:44 37.20038 -120.93230 9982 ft 288 kts 287°
2026-04-11 12:44 37.20693 -120.95601 9958 ft 287 kts 287°
2026-04-11 12:45 37.21344 -120.97957 9958 ft 285 kts 287°
2026-04-11 12:45 37.21991 -121.00304 9974 ft 284 kts 287°
2026-04-11 12:45 37.22638 -121.02648 9960 ft 283 kts 287°
2026-04-11 12:45 37.23285 -121.04997 9990 ft 292 kts 287°
2026-04-11 12:46 37.23976 -121.07519 9998 ft 315 kts 287°
2026-04-11 12:46 37.24686 -121.10100 9981 ft 317 kts 287°
2026-04-11 12:46 37.25408 -121.12724 9976 ft 318 kts 287°
2026-04-11 12:46 37.26132 -121.15355 9980 ft 319 kts 287°
2026-04-11 12:47 37.26855 -121.17985 9965 ft 319 kts 287°
2026-04-11 12:47 37.27579 -121.20617 9982 ft 318 kts 287°
2026-04-11 12:47 37.28301 -121.23250 9964 ft 319 kts 287°
2026-04-11 12:47 37.29021 -121.25882 9965 ft 318 kts 287°
2026-04-11 12:48 37.29738 -121.28508 9962 ft 318 kts 287°
2026-04-11 12:48 37.30451 -121.31117 9940 ft 310 kts 287°
2026-04-11 12:48 37.31142 -121.33638 9873 ft 299 kts 286°
2026-04-11 12:48 37.31808 -121.36073 9756 ft 290 kts 286°
2026-04-11 12:49 37.32442 -121.38405 9614 ft 282 kts 286°
2026-04-11 12:49 37.33074 -121.40724 9358 ft 278 kts 286°
2026-04-11 12:49 37.33698 -121.43017 9024 ft 277 kts 286°
2026-04-11 12:49 37.34320 -121.45304 8667 ft 276 kts 286°
2026-04-11 12:50 37.34937 -121.47580 8340 ft 275 kts 286°
2026-04-11 12:50 37.35552 -121.49850 8030 ft 273 kts 285°
2026-04-11 12:50 37.36161 -121.52108 7693 ft 272 kts 285°
2026-04-11 12:50 37.36770 -121.54355 7371 ft 271 kts 285°
2026-04-11 12:51 37.37376 -121.56590 7084 ft 269 kts 285°
2026-04-11 12:51 37.37979 -121.58809 6780 ft 268 kts 285°
2026-04-11 12:51 37.38575 -121.61026 6444 ft 267 kts 285°
2026-04-11 12:51 37.39172 -121.63236 6111 ft 266 kts 285°
2026-04-11 12:52 37.39766 -121.65433 5761 ft 265 kts 285°
2026-04-11 12:52 37.40357 -121.67634 5452 ft 264 kts 285°
2026-04-11 12:52 37.40952 -121.69818 5087 ft 264 kts 287°
2026-04-11 12:52 37.41590 -121.72005 4755 ft 266 kts 287°
2026-04-11 12:53 37.42229 -121.74195 4335 ft 267 kts 287°
2026-04-11 12:53 37.42874 -121.76386 4088 ft 265 kts 289°
2026-04-11 12:53 37.43506 -121.78510 3941 ft 259 kts 287°
2026-04-11 12:53 37.44113 -121.80573 3796 ft 242 kts 287°
2026-04-11 12:54 37.44676 -121.82516 3317 ft 231 kts 287°
2026-04-11 12:54 37.45222 -121.84396 2711 ft 229 kts 287°
2026-04-11 12:54 37.45770 -121.86268 2134 ft 227 kts 288°
2026-04-11 12:54 37.46128 -121.87500 1879 ft 222 kts 288°
2026-04-11 12:55 37.46653 -121.89293 1751 ft 213 kts 287°
2026-04-11 12:55 37.47155 -121.91015 1828 ft 209 kts 287°
2026-04-11 12:55 37.47554 -121.92397 1794 ft 213 kts 287°
2026-04-11 12:55 37.47865 -121.93475 1755 ft 210 kts 287°
2026-04-11 12:56 37.48192 -121.94604 1756 ft 204 kts 287°
2026-04-11 12:56 37.48675 -121.96258 1757 ft 199 kts 287°
2026-04-11 12:56 37.49146 -121.97894 1777 ft 197 kts 287°
2026-04-11 12:56 37.49613 -121.99510 1767 ft 196 kts 288°
2026-04-11 12:57 37.50075 -122.01119 1763 ft 194 kts 287°
2026-04-11 12:57 37.50537 -122.02710 1757 ft 192 kts 287°
2026-04-11 12:57 37.50988 -122.04278 1760 ft 193 kts 287°
2026-04-11 12:57 37.51451 -122.05890 1748 ft 192 kts 287°
2026-04-11 12:58 37.51902 -122.07451 1760 ft 192 kts 287°
2026-04-11 12:58 37.52365 -122.09049 1768 ft 196 kts 287°
2026-04-11 12:58 37.52832 -122.10671 1772 ft 196 kts 287°
2026-04-11 12:58 37.53297 -122.12281 1773 ft 194 kts 287°
2026-04-11 12:59 37.53755 -122.13881 1763 ft 194 kts 287°
2026-04-11 12:59 37.54208 -122.15459 1756 ft 189 kts 287°
2026-04-11 12:59 37.54652 -122.17001 1750 ft 185 kts 287°
2026-04-11 12:59 37.55088 -122.18517 1752 ft 181 kts 287°
2026-04-11 13:00 37.55510 -122.19983 1751 ft 174 kts 287°
2026-04-11 13:00 37.55856 -122.21194 1763 ft 173 kts 287°
2026-04-11 13:05 37.56178 -122.22317 1769 ft 174 kts 287°
2026-04-11 13:05 37.56589 -122.23752 1766 ft 174 kts 287°
2026-04-11 13:06 37.56991 -122.25124 1758 ft 163 kts 289°
2026-04-11 13:06 37.57465 -122.26401 1727 ft 162 kts 294°
2026-04-11 13:06 37.57994 -122.27680 1479 ft 163 kts 295°
2026-04-11 13:06 37.58520 -122.28935 1238 ft 160 kts 295°
2026-04-11 13:07 37.59029 -122.30153 1039 ft 158 kts 295°
2026-04-11 13:07 37.59542 -122.31377 821 ft 160 kts 295°
2026-04-11 13:07 37.60058 -122.32615 621 ft 159 kts 295°
2026-04-11 13:07 37.60574 -122.33835 382 ft 156 kts 296°
2026-04-11 13:08 37.61073 -122.35035 206 ft 154 kts 296°
2026-04-11 13:08 37.61574 -122.36249 41 ft 159 kts 298°
2026-04-11 13:08 37.62046 -122.37371 23 ft 121 kts 298°
2026-04-11 13:08 37.62331 -122.38049 28 ft 28 kts 290°
2026-04-11 13:09 37.62286 -122.38251 30 ft 20 kts 212°
2026-04-11 13:09 37.62119 -122.38325 28 ft 30 kts 197°
2026-04-11 13:09 37.62002 -122.38386 29 ft 12 kts 218°
2026-04-11 13:09 37.61991 -122.38397 28 ft 0 kts 219°